GFSSGP_500_spd_072.txt.gz
Wind_Speed
14 14 12 13 13 11 11 7 7 8 8 6 7 8 9 9 10 10 10 10 11 11 11 11 11 11 9 6 3 5 3 5 8 12 12 11 12 13 13 11 10 10 9 10 8 10 10 8 8
14 13 12 12 9 12 8 7 7 7 8 8 6 6 7 8 8 8 7 8 9 10 10 10 9 9 10 9 6 5 3 6 7 12 13 14 12 12 13 9 7 8 7 5 6 6 7 7 7
13 12 12 11 8 11 7 6 7 7 7 7 7 8 7 8 8 8 9 9 10 10 9 8 8 9 9 9 10 9 6 4 4 2 4 5 4 3 5 6 6 6 6 7 7 9 8 10 9
12 11 11 8 9 7 6 4 4 4 5 7 6 6 6 8 8 8 9 10 10 11 11 11 11 9 8 8 7 7 7 7 5 3 1 2 4 4 3 4 4 4 5 6 6 6 6 5 5
10 10 9 9 7 5 4 3 3 2 2 4 6 7 6 5 5 5 6 6 7 8 8 9 10 11 11 10 7 5 5 4 3 3 3 3 1 0 1 2 3 2 4 4 5 5 7 6 7
9 9 8 9 6 5 3 3 2 3 1 1 3 4 5 6 7 5 4 4 6 6 6 7 7 8 9 9 8 7 5 3 2 3 2 1 2 3 3 4 5 5 6 7 7 8 9 8 9
9 8 7 8 8 6 5 3 1 2 2 1 1 2 3 4 5 6 6 4 3 5 6 7 7 8 8 7 7 6 5 5 5 4 3 3 4 4 5 6 7 8 8 8 9 9 9 8 8
11 9 8 8 8 6 4 4 3 1 2 2 1 0 1 1 3 5 5 5 5 5 5 5 6 6 6 6 7 7 7 6 5 4 4 4 4 4 5 5 5 5 5 5 6 7 7 8 8
14 13 11 11 10 8 6 5 4 5 2 1 1 1 1 2 2 3 4 5 5 6 6 7 7 7 7 7 7 8 8 8 9 8 7 6 7 7 7 8 8 7 6 7 7 9 9 10 10
18 16 17 14 12 10 10 9 6 6 5 3 2 4 2 3 2 2 3 5 6 7 7 8 9 9 10 10 10 10 9 9 10 10 10 10 9 9 9 9 9 9 10 10 11 12 12 13 14
22 20 22 17 16 15 13 12 9 8 8 5 5 6 4 3 3 2 3 4 6 7 8 10 11 12 12 12 13 12 13 11 11 11 11 12 12 10 11 11 12 12 13 14 15 16 17 17 18
24 26 24 21 21 19 16 16 12 11 8 8 8 6 6 4 4 3 3 4 6 8 8 10 12 13 14 15 16 16 15 14 12 14 14 14 14 14 14 14 16 17 18 18 19 19 21 22 22
27 26 27 24 25 22 20 19 15 15 12 9 10 8 8 7 6 4 4 5 7 10 11 13 13 15 15 16 17 18 18 17 16 14 14 17 17 18 18 18 18 20 21 22 22 22 23 24 25
23 25 30 27 27 25 23 21 17 20 15 11 11 11 9 9 7 7 6 6 8 11 13 14 16 17 18 19 19 20 20 20 19 18 17 18 19 20 22 22 23 23 23 23 24 24 25 26 26
24 27 29 28 28 26 27 23 20 23 18 16 13 12 12 12 10 11 9 9 10 12 13 15 17 18 19 20 22 22 23 23 23 23 22 21 22 22 22 22 23 23 24 23 24 25 27 28 28
28 28 29 29 28 29 30 22 24 24 21 20 16 13 14 14 14 14 13 13 13 15 15 16 18 19 20 22 23 24 25 26 25 26 26 26 24 25 25 25 25 25 25 25 24 26 29 30 30
29 28 30 32 30 30 31 26 26 25 24 21 19 17 15 15 14 17 17 17 18 18 19 20 21 21 20 23 25 25 25 26 29 29 29 30 29 28 27 29 28 29 28 27 28 28 30 33 33
29 32 32 31 31 31 32 27 28 27 26 23 21 20 19 17 19 20 20 20 20 22 22 24 22 24 25 27 27 25 26 26 27 30 30 32 33 31 30 31 32 32 31 31 31 32 32 33 35
34 32 32 32 31 31 32 30 29 28 26 25 24 24 21 20 23 23 23 23 23 23 24 23 24 26 28 30 30 28 26 26 27 28 29 31 33 32 32 32 34 34 34 35 36 37 38 38 38
35 35 34 32 33 32 33 34 29 28 27 28 27 24 24 23 25 27 25 26 26 26 25 26 27 26 29 30 31 30 29 25 26 27 28 29 33 33 33 32 34 35 36 38 39 40 41 42 43
38 38 36 35 38 34 36 39 29 31 29 28 25 26 27 27 28 29 29 27 28 28 29 30 29 29 29 32 33 32 31 27 27 28 31 30 31 33 34 35 36 38 38 40 40 42 43 44 44
40 40 40 39 39 40 40 43 31 32 28 27 27 28 30 30 30 31 32 30 28 31 32 32 32 33 31 33 34 35 32 30 31 33 33 35 35 36 37 37 37 39 41 41 44 47 48 46 46
43 42 44 42 43 44 42 45 34 31 32 30 30 31 33 33 34 35 35 36 35 34 35 34 34 36 35 36 36 36 34 33 33 34 34 37 39 39 40 40 41 42 42 45 47 48 49 49 46
46 45 46 47 47 47 46 45 44 36 36 35 33 34 36 37 37 39 40 39 39 36 36 38 39 39 40 40 40 38 37 35 35 35 35 39 41 41 42 43 44 45 45 47 49 49 48 48 48
49 49 49 49 51 49 52 50 46 48 43 38 38 37 39 40 42 42 42 43 42 41 40 39 41 42 43 43 44 39 37 39 38 36 34 37 40 41 42 44 46 47 49 49 49 48 48 49 49
47 48 50 53 54 53 55 51 46 51 51 48 45 46 45 46 45 46 47 47 46 46 45 42 42 43 44 45 43 41 46 41 42 42 35 40 42 43 45 47 47 48 48 49 50 50 50 50 51
52 53 49 52 54 59 59 53 52 51 53 56 54 52 51 50 49 49 49 50 50 49 48 47 46 46 46 45 49 45 42 45 43 44 44 44 44 47 47 47 48 48 49 49 48 49 50 50 51
53 53 53 55 57 60 61 58 53 53 55 56 57 57 56 56 54 52 53 52 53 52 51 52 52 52 52 50 48 49 47 45 45 44 46 47 45 46 45 46 48 48 49 49 49 49 49 50 50
54 53 55 56 57 60 60 60 55 55 57 58 58 58 57 57 55 52 53 53 53 55 55 53 53 54 57 55 52 51 51 48 47 47 49 46 44 45 45 46 47 48 49 49 49 49 49 50 51
51 51 55 61 60 64 63 62 52 54 55 58 59 60 58 56 58 56 55 54 54 54 55 55 55 56 57 56 56 54 54 52 48 50 52 54 54 53 53 53 52 51 50 51 51 50 51 52 52

GFSSGP_500_spd_075.txt.gz
Wind_Speed
14 14 12 10 8 6 13 14 13 13 12 11 12 12 12 11 11 12 12 13 13 13 13 14 14 9 9 6 6 10 11 9 10 11 11 7 7 8 9 10 9 8 8 9 7 6 8 7 7
15 13 11 9 6 9 14 13 11 10 11 12 12 11 11 11 12 12 12 11 11 12 13 14 13 12 12 8 3 3 2 3 3 5 7 7 9 9 9 8 6 8 7 5 5 5 5 5 4
14 13 11 9 9 12 13 9 10 9 11 10 10 12 12 12 13 14 14 15 16 14 14 13 12 10 10 9 9 9 8 6 4 3 1 3 3 1 1 1 2 4 4 3 4 5 5 7 7
13 11 9 9 9 10 10 6 6 6 9 11 9 9 9 9 11 12 13 13 14 14 15 15 15 13 10 8 8 9 9 10 11 7 4 2 0 2 1 1 2 3 3 3 4 4 3 4 4
13 11 10 9 9 10 8 6 5 4 5 7 8 9 10 9 8 8 9 10 10 12 13 13 13 13 13 12 10 8 7 8 8 6 5 4 3 2 2 2 2 2 3 4 4 4 4 5 5
13 10 8 7 8 8 6 5 4 3 4 3 4 6 7 9 9 9 7 7 7 8 9 10 11 11 11 11 11 9 8 6 5 3 2 2 2 2 2 3 4 4 5 6 6 7 7 8 8
10 10 7 3 4 7 4 3 3 4 2 3 4 3 4 6 7 8 8 8 5 5 6 7 7 7 7 8 8 7 7 6 5 3 2 2 2 3 4 5 6 7 7 8 8 8 8 6 5
11 9 8 7 4 5 3 2 0 1 1 3 3 2 3 3 4 5 6 7 7 7 6 7 7 8 7 7 6 6 6 5 4 3 3 4 5 5 5 5 5 5 4 5 5 6 6 6 7
12 10 10 8 7 5 4 2 2 2 2 2 2 3 3 3 3 3 4 5 6 7 7 8 8 8 9 9 8 8 7 6 6 5 5 6 6 7 7 8 8 8 8 8 8 9 9 10 11
14 13 13 8 8 10 8 6 5 3 5 3 3 1 5 3 3 3 4 5 6 5 7 8 8 9 10 10 9 9 9 9 8 8 8 8 7 8 9 9 9 10 10 11 12 13 14 14 15
16 18 15 12 12 11 11 8 8 7 5 6 5 4 4 3 2 2 3 4 4 5 6 7 8 9 10 11 10 10 11 11 10 10 10 11 9 9 10 11 12 13 13 14 15 16 16 17 18
20 24 19 17 17 14 14 14 11 11 8 8 6 7 4 4 3 3 3 4 5 7 7 8 10 11 12 13 13 12 12 12 12 12 13 14 12 11 12 12 14 15 17 18 19 20 20 20 20
24 25 23 22 22 19 18 18 13 15 13 9 9 8 7 6 5 4 2 3 5 7 9 9 10 11 12 14 15 16 16 14 14 12 14 15 16 15 16 16 17 17 19 20 21 22 22 22 21
24 25 27 27 25 23 21 21 15 22 16 9 12 7 8 9 6 7 4 3 3 7 9 9 11 13 13 14 14 15 17 18 17 17 16 16 17 19 20 20 20 21 20 20 20 21 21 21 22
25 26 27 26 27 25 26 23 20 24 19 15 13 11 9 12 9 10 8 6 5 8 8 11 12 13 14 15 15 18 16 18 19 19 20 21 20 21 21 22 21 21 22 22 21 21 23 23 23
29 27 27 27 29 28 29 23 25 26 22 20 16 14 12 11 12 13 12 10 8 10 11 12 15 16 15 16 16 19 19 18 20 20 21 22 24 24 24 25 25 25 25 25 25 24 24 26 27
29 27 29 30 30 28 30 26 28 27 25 22 19 16 16 14 13 14 13 13 13 13 14 14 16 17 17 17 19 20 23 20 20 21 21 23 24 25 27 27 27 29 29 29 28 27 28 29 30
30 31 31 31 30 30 30 27 29 28 27 25 21 19 19 18 18 18 18 16 15 17 16 17 17 18 19 19 21 21 23 24 23 22 24 24 24 26 26 29 30 31 31 32 31 31 32 33 34
32 32 30 32 29 30 29 29 29 30 28 26 23 22 21 20 23 21 21 20 19 18 19 18 18 19 21 20 21 23 24 24 26 26 25 26 27 27 27 28 31 32 33 33 33 35 36 36 36
33 32 32 33 32 31 31 29 29 29 28 26 25 24 23 24 25 26 23 21 22 22 22 21 21 22 23 22 23 23 24 25 26 27 29 31 31 30 28 28 31 33 34 34 35 36 38 38 37
34 34 35 34 35 33 31 31 28 27 27 26 26 26 26 28 28 28 27 25 24 25 27 25 25 25 25 25 26 25 26 26 27 28 29 33 35 35 33 32 34 36 37 37 37 38 39 41 41
36 37 36 37 36 37 35 36 29 28 29 27 27 28 29 30 29 29 30 29 27 27 29 31 30 29 27 29 30 29 28 29 29 30 30 32 35 37 38 36 36 37 38 39 40 42 43 43 46
38 39 40 39 39 39 38 40 28 28 30 28 29 30 28 31 32 33 34 34 32 32 33 34 34 32 32 34 34 33 34 33 31 31 32 33 36 38 39 39 39 40 42 43 44 46 48 48 49
41 41 43 43 42 42 41 40 42 30 31 31 31 32 33 35 35 37 38 38 38 38 38 38 39 38 37 38 38 37 38 37 34 31 31 34 37 40 41 42 43 43 43 43 44 46 49 51 52
45 45 45 45 46 44 45 43 44 44 36 36 35 35 37 39 42 42 42 42 42 43 43 43 41 42 41 40 42 42 41 41 39 38 36 34 37 41 44 44 45 45 46 46 47 49 49 50 50
45 46 48 49 50 49 49 48 44 47 45 41 41 44 44 42 43 44 44 46 47 47 47 47 47 45 45 44 44 45 45 45 44 42 38 40 40 42 46 50 50 49 50 51 50 51 51 51 49
48 51 47 49 52 54 55 50 50 48 50 50 48 47 46 48 49 48 49 50 49 48 48 49 50 50 49 49 48 47 48 48 47 47 44 40 41 44 46 49 52 53 52 51 51 51 52 52 52
48 46 48 50 53 55 56 55 50 51 49 51 50 53 53 51 50 50 49 50 51 51 51 53 54 54 54 53 53 52 52 51 49 48 47 45 45 46 49 49 51 51 51 51 50 50 50 50 52
43 44 47 49 50 52 52 52 51 51 52 53 55 55 56 56 54 52 50 51 50 50 52 54 55 57 57 58 58 59 57 54 50 48 47 49 50 48 51 55 56 57 55 55 54 54 54 55 55
42 43 44 45 46 49 52 54 50 48 50 51 53 54 55 56 56 56 57 56 54 53 54 56 57 58 59 60 59 56 54 53 51 51 53 53 51 51 53 55 58 60 59 59 58 57 55 55 55

GFSSGP_500_spd_078.txt.gz
Wind_Speed
15 13 11 9 9 9 6 10 12 16 16 16 15 15 13 11 9 11 11 12 14 14 14 14 11 8 9 8 8 8 10 14 15 13 10 9 9 11 12 12 11 9 7 7 6 6 5 7 7
15 13 12 11 10 9 9 11 12 14 14 15 16 14 14 13 13 13 11 12 11 13 15 15 15 14 11 9 7 3 3 7 8 5 6 9 8 8 8 8 6 6 7 6 4 4 4 5 5
15 13 13 13 9 9 10 10 13 13 13 12 13 13 14 14 15 15 16 17 16 14 13 12 13 14 13 14 12 7 6 5 4 4 4 3 8 3 2 3 3 3 3 4 4 5 6 6 8
15 13 13 13 10 9 11 9 10 10 12 13 13 12 12 11 12 13 14 14 15 17 17 16 14 12 12 12 12 12 12 10 7 6 6 5 4 3 4 3 3 3 3 3 4 4 3 5 5
15 12 11 12 10 9 11 10 8 8 8 10 10 11 13 11 10 10 11 11 13 14 16 16 15 15 14 11 10 9 9 9 8 7 7 5 4 2 1 1 1 1 1 2 2 3 4 6 6
14 10 9 7 8 10 10 10 8 7 7 6 6 7 8 9 10 11 8 9 10 10 11 12 13 12 11 11 10 10 9 7 6 5 3 2 1 0 2 2 3 3 4 5 5 6 7 9 9
14 11 9 5 3 7 9 8 6 6 8 5 4 5 5 7 7 8 8 9 9 8 9 9 9 10 9 8 8 7 6 6 4 3 2 2 2 3 5 6 6 6 6 6 6 6 6 6 6
15 12 11 9 5 5 7 7 5 3 5 5 5 5 4 4 5 6 7 7 7 7 8 8 8 8 7 6 6 5 4 4 3 2 3 4 4 5 5 5 5 6 5 5 5 6 7 8 9
16 13 9 7 6 5 5 6 4 3 1 2 2 3 4 4 4 4 5 6 6 6 7 7 6 6 6 6 5 5 4 4 4 4 5 5 6 7 7 8 8 8 8 8 8 9 10 11 13
15 13 10 7 7 6 5 5 4 2 2 3 1 4 2 2 3 3 4 4 5 6 7 7 7 7 6 5 5 6 6 7 6 7 8 6 7 8 9 9 9 10 10 11 12 13 14 15 16
18 16 12 11 11 10 9 9 7 4 3 5 5 4 4 1 1 2 2 3 5 6 6 7 7 8 8 9 9 8 8 7 7 9 10 8 9 9 10 10 11 12 13 14 15 17 18 19 20
20 19 16 16 15 14 13 13 10 9 6 6 7 8 5 4 2 1 1 3 3 5 5 6 7 7 8 8 9 10 10 10 9 10 13 11 11 11 13 13 13 14 15 16 17 19 21 21 22
23 23 20 19 19 18 17 16 13 15 11 8 8 9 7 6 5 4 2 1 1 3 4 5 7 8 8 9 9 9 10 11 11 12 15 15 15 15 14 15 16 17 18 19 19 19 20 22 22
27 25 24 24 23 22 21 19 17 22 13 11 12 10 11 10 8 8 5 4 2 2 4 5 6 8 9 9 9 10 10 12 11 12 15 17 18 19 20 19 19 19 20 20 20 21 20 20 20
29 28 27 26 26 26 25 23 22 23 19 17 14 12 11 13 11 10 9 7 5 5 6 7 8 9 11 11 11 12 13 13 14 12 14 17 20 21 23 22 22 22 22 24 24 23 24 23 24
30 29 28 27 28 27 26 24 25 26 23 21 17 15 14 14 15 14 12 11 9 9 10 11 12 12 12 12 12 14 15 16 17 16 15 17 19 22 24 25 24 25 26 27 28 27 27 26 27
30 29 29 30 29 28 27 25 29 28 26 24 21 18 17 18 16 16 14 14 12 11 11 12 14 15 14 12 13 14 15 16 17 17 19 21 20 21 24 26 26 27 30 31 30 30 29 30 31
29 32 31 30 29 28 28 26 29 28 27 26 24 21 21 20 21 20 18 17 15 14 14 14 15 17 17 16 16 15 16 17 17 18 20 22 24 25 26 27 28 27 29 31 31 31 32 33 33
34 32 31 31 31 31 30 28 29 31 28 28 26 26 25 22 25 24 23 21 18 18 18 17 17 19 19 19 19 18 18 18 19 20 22 23 24 25 28 29 29 29 31 32 32 33 34 34 35
33 32 31 32 33 31 31 29 29 31 28 27 28 28 28 27 27 29 27 24 22 22 22 22 21 20 21 21 23 21 22 20 21 22 24 25 27 27 26 28 31 33 34 34 35 36 36 37 37
34 33 32 33 33 32 31 28 29 30 28 29 28 28 30 30 30 30 29 28 27 26 26 25 24 24 25 25 26 25 25 24 25 26 27 28 27 29 29 29 30 33 36 37 37 39 40 41 40
34 34 35 35 35 34 32 31 26 28 29 29 29 30 31 31 31 31 32 32 31 30 29 29 30 28 29 29 29 29 30 29 31 30 31 30 29 30 31 31 33 35 37 39 41 42 44 43 43
35 36 37 36 37 36 34 37 28 27 30 29 31 31 30 32 34 35 36 36 35 34 34 34 34 34 35 34 34 35 35 34 33 35 35 33 34 33 34 35 36 38 40 42 42 44 45 46 47
40 38 38 38 38 38 36 37 38 31 31 32 32 34 34 34 35 37 38 39 40 40 39 39 40 39 39 39 40 39 39 40 39 38 38 38 38 38 39 41 41 42 43 44 46 47 48 48 49
45 44 43 43 42 40 41 40 42 39 35 36 35 36 37 37 40 41 42 43 45 45 44 44 45 44 44 44 43 43 44 44 44 43 43 41 40 41 42 45 45 45 47 48 49 51 53 54 54
46 46 45 47 47 45 46 44 42 45 42 39 40 41 42 43 44 45 45 47 49 49 49 51 50 50 50 49 47 46 46 47 47 46 47 44 45 46 45 46 46 47 49 52 53 54 56 56 58
52 52 47 49 51 52 50 48 46 47 48 47 45 47 48 48 47 47 48 50 51 51 52 53 53 54 54 52 52 52 50 49 49 49 49 49 50 50 49 49 49 50 52 54 56 58 58 57 56
52 49 49 50 52 54 54 52 50 47 49 50 50 49 49 51 52 51 50 50 52 52 53 55 55 56 57 57 57 57 56 53 52 51 52 52 52 52 51 50 51 53 55 58 60 60 62 59 57
49 49 48 48 49 51 52 50 49 48 50 53 53 53 51 51 52 52 53 54 54 54 55 55 55 56 57 57 58 59 58 55 54 53 49 48 49 50 51 53 56 57 59 62 64 64 64 61 58
52 52 53 53 51 49 49 49 49 48 51 53 53 51 52 52 52 53 55 56 55 54 54 53 55 55 56 57 57 58 58 57 55 54 53 52 52 51 57 59 58 59 61 63 65 65 65 61 60

GFSSGP_500_spd_081.txt.gz
Wind_Speed
15 12 11 10 10 7 9 11 14 14 14 17 17 15 13 11 9 8 9 8 9 10 7 13 15 12 11 10 10 11 8 9 10 10 10 10 8 9 9 10 10 11 9 8 8 8 8 8 9
14 11 11 10 9 10 11 11 13 12 13 17 18 18 18 17 13 11 9 10 10 10 11 14 12 10 9 8 7 6 6 10 10 9 10 9 7 7 7 6 6 6 6 5 5 6 6 7 7
15 14 12 12 9 12 13 13 13 13 11 15 16 16 16 16 16 17 16 14 13 11 10 12 13 15 14 12 9 10 7 8 7 6 6 7 8 9 7 5 4 5 5 6 7 7 8 8 8
17 16 13 13 9 11 11 12 12 14 14 15 15 13 13 13 14 14 15 15 16 15 14 14 11 12 14 14 14 14 13 10 9 7 4 4 3 2 2 3 4 4 5 6 6 6 6 6 7
18 16 14 12 9 9 10 10 11 10 11 12 15 14 14 12 11 11 12 13 14 14 14 15 16 15 14 12 11 11 11 10 9 8 7 6 4 2 2 2 3 3 4 4 5 5 6 7 8
17 15 13 11 8 7 8 10 11 10 9 9 10 12 11 12 12 11 9 10 11 11 12 12 13 13 13 14 13 11 10 8 7 5 4 3 1 0 1 3 3 4 6 7 7 8 9 10 10
17 15 13 11 7 7 6 8 10 10 9 9 7 8 8 8 8 8 8 9 9 10 10 10 11 10 10 10 9 9 8 6 5 5 4 3 2 2 3 3 4 5 6 7 6 6 6 6 8
18 15 13 12 9 7 6 5 7 8 7 7 7 6 5 5 5 5 6 6 6 7 8 8 9 9 8 7 6 6 5 5 5 4 4 5 5 6 6 6 6 6 7 8 8 8 9 9 10
19 16 12 11 10 8 6 4 4 5 5 3 5 4 5 4 3 3 5 6 7 7 7 7 7 6 6 5 6 5 4 4 4 5 5 6 6 6 7 7 8 8 9 10 10 11 13 13 14
19 16 13 11 9 8 6 4 4 3 3 2 1 2 3 3 3 3 4 4 6 7 7 7 6 6 5 5 5 4 3 4 4 5 6 7 7 8 9 9 10 10 11 12 13 14 15 17 18
19 18 15 13 12 10 9 7 6 5 3 3 3 1 2 1 1 1 2 3 5 5 5 5 5 5 5 4 4 4 4 4 6 8 7 8 9 10 11 11 12 13 14 15 16 17 18 19 21
21 18 16 15 14 11 10 10 9 9 7 5 5 4 3 2 1 1 1 1 2 2 3 3 4 5 4 5 5 5 5 6 8 10 10 11 12 11 12 13 14 15 17 17 18 20 21 22 22
23 20 18 17 16 16 14 13 12 13 10 8 7 8 5 5 5 4 3 2 1 1 3 4 4 5 5 6 5 6 7 7 8 11 12 13 15 15 15 16 17 18 19 20 21 21 21 22 22
26 25 23 21 21 19 18 17 15 19 12 13 11 9 9 7 8 8 6 6 5 3 1 2 4 5 6 6 6 6 8 9 10 12 14 16 17 18 18 19 20 20 21 22 22 23 23 23 23
30 28 26 25 24 22 22 20 21 20 18 18 15 13 11 12 12 11 10 10 8 7 6 6 7 7 9 9 9 9 10 11 11 11 14 16 17 18 21 21 22 23 25 26 26 27 27 27 27
32 30 28 26 28 26 25 22 24 25 23 20 19 18 15 15 15 15 15 14 13 12 12 10 10 11 11 11 10 10 11 12 12 11 12 16 18 20 22 23 24 25 27 29 30 31 31 30 30
33 29 30 30 30 28 26 23 26 26 25 23 23 21 19 19 19 20 18 18 17 16 16 15 14 14 14 13 12 12 13 13 14 14 13 15 17 20 21 24 25 26 28 29 31 31 32 32 32
30 31 33 30 30 29 27 24 26 26 25 25 25 25 24 22 22 22 20 21 20 19 18 18 18 18 18 17 15 15 16 16 16 17 17 17 20 21 22 24 25 25 27 30 31 31 32 33 34
36 34 32 32 31 32 30 27 26 27 25 27 27 26 26 26 27 24 25 26 23 22 22 21 21 22 21 20 19 19 19 19 19 20 21 19 21 24 24 25 26 28 29 29 31 33 33 34 34
34 34 32 32 32 33 32 27 27 29 27 27 27 29 30 29 29 29 28 27 26 26 26 25 25 23 24 23 24 22 23 22 24 25 26 26 25 24 25 26 27 28 30 32 34 35 36 38 38
33 32 32 32 33 33 32 29 27 30 28 29 28 30 32 32 30 31 30 29 30 30 32 31 28 27 27 27 28 28 28 27 27 29 30 31 31 29 29 28 27 29 31 33 35 38 40 42 43
34 33 33 33 35 35 32 31 25 27 28 30 31 30 31 32 33 33 33 33 32 34 34 34 33 31 32 32 31 33 34 32 33 34 34 35 36 36 35 34 33 33 34 35 36 38 40 42 44
35 35 35 35 36 35 32 35 30 28 29 30 31 32 32 33 34 35 35 35 35 36 37 38 38 37 37 38 37 37 38 38 38 39 39 40 41 41 40 39 39 39 39 39 40 42 44 46 47
38 37 37 36 36 36 34 35 35 33 31 30 32 33 34 34 35 37 38 38 38 39 40 41 42 42 42 42 43 43 43 43 43 44 45 45 45 46 45 44 45 46 44 44 45 45 46 47 49
42 41 40 39 39 38 38 37 37 38 35 35 35 36 37 38 40 41 41 41 42 43 44 45 45 46 47 48 48 48 48 48 48 48 49 50 50 49 49 50 50 50 50 50 50 50 49 49 51
45 44 44 45 44 43 43 41 41 42 41 39 40 41 41 41 42 43 44 45 46 47 48 49 50 50 52 51 53 53 54 54 54 54 53 51 51 53 53 54 54 54 55 55 55 54 52 52 54
50 50 47 49 49 49 47 46 46 46 47 47 45 44 45 45 45 46 47 48 50 50 51 51 52 52 54 54 55 56 57 58 57 57 56 53 53 55 56 57 57 57 58 58 58 58 58 59 60
54 52 51 53 54 54 53 52 52 50 52 53 54 51 50 50 51 51 51 51 52 52 53 55 56 56 56 57 57 56 56 57 56 56 55 56 56 57 58 57 57 57 56 58 62 62 62 63 65
55 56 56 56 56 57 57 56 55 56 55 55 55 55 54 51 51 52 53 54 54 54 53 55 57 57 57 56 57 56 56 56 56 55 55 56 55 55 54 53 53 53 54 57 62 64 66 68 69
53 54 54 55 55 55 55 56 56 56 57 56 53 53 52 50 50 50 51 53 55 55 56 56 57 56 57 58 58 58 60 61 62 63 61 59 57 57 56 56 55 55 55 59 64 69 72 68 66

GFSSGP_500_spd_084.txt.gz
Wind_Speed
17 15 13 12 11 10 11 13 13 15 16 16 17 16 14 13 12 9 6 7 8 11 7 10 16 14 11 11 7 13 13 10 10 9 8 8 7 4 5 5 8 8 9 8 9 9 9 9 10
17 15 13 12 11 10 12 11 12 15 15 16 17 18 20 19 17 13 9 8 11 14 13 11 18 9 9 10 9 9 8 7 7 7 6 6 4 3 3 5 5 6 5 7 7 7 8 8 9
18 16 15 14 12 13 14 13 12 13 13 16 15 17 19 19 18 18 16 14 12 13 12 15 15 10 10 8 8 9 8 6 6 6 4 5 5 5 6 6 5 6 6 8 9 8 9 9 9
19 17 16 16 13 12 13 14 14 15 14 14 14 15 17 17 17 16 16 16 16 17 15 14 14 14 15 15 15 13 10 8 6 6 5 4 2 3 3 3 4 4 7 8 8 9 9 8 8
18 17 16 15 12 11 12 13 12 14 14 15 15 15 15 14 13 13 13 14 14 15 16 16 17 16 14 14 14 14 13 12 10 9 8 6 5 4 2 2 4 4 6 6 6 8 8 9 10
19 17 16 14 12 11 10 12 11 12 12 13 11 13 14 15 13 12 11 11 11 11 12 13 14 15 15 15 14 13 10 9 7 6 5 4 3 2 2 3 4 5 6 7 8 10 11 11 12
21 18 15 14 12 10 9 11 12 13 10 10 9 9 11 10 10 9 9 9 10 10 10 10 11 11 12 11 11 10 9 8 6 5 4 3 2 1 2 3 5 6 6 7 7 7 7 8 9
22 20 17 14 12 10 10 10 10 12 12 10 8 7 7 7 7 7 6 6 6 7 8 8 9 9 9 9 8 8 7 6 6 6 6 5 4 4 4 5 6 6 7 8 8 9 9 10 12
22 20 18 15 13 10 10 9 9 8 10 10 9 7 6 5 5 6 6 6 6 6 6 6 6 7 7 6 6 6 5 4 4 4 5 6 7 7 7 7 8 9 9 10 11 12 12 14 15
22 19 17 16 14 10 8 7 7 6 5 7 7 6 5 3 4 4 5 6 6 6 5 5 6 6 5 5 5 4 3 2 3 3 5 5 6 8 9 9 11 11 12 13 14 15 15 16 17
22 20 17 16 14 13 10 7 5 5 4 5 5 5 4 2 2 2 3 5 4 3 3 3 3 4 4 4 3 3 2 3 4 5 6 7 8 8 9 11 13 14 15 15 16 17 17 19 20
23 20 18 16 13 13 11 10 8 7 5 3 3 4 4 4 3 2 1 2 2 2 2 3 4 4 4 4 3 4 4 5 7 7 8 9 10 11 12 13 14 15 16 17 18 19 20 21 21
25 23 20 17 15 13 12 10 11 10 8 7 5 5 5 5 6 5 4 3 2 2 1 2 1 2 2 3 4 3 4 6 7 9 9 11 12 14 15 16 18 18 19 20 20 22 22 21 21
27 25 23 20 18 16 14 12 12 11 11 12 11 8 7 7 8 8 8 7 6 5 5 4 3 4 4 5 5 5 5 7 8 10 11 12 13 14 16 18 20 21 22 23 24 24 26 26 26
30 28 25 22 22 19 18 16 17 15 15 16 13 13 12 10 10 11 11 11 10 9 9 8 8 8 8 9 9 9 8 8 9 10 12 12 13 15 17 18 20 21 23 25 26 27 28 29 29
32 30 27 24 24 21 20 19 20 20 19 18 17 15 15 14 15 15 15 14 14 14 14 12 12 12 12 13 13 13 13 13 12 12 13 13 14 15 16 18 19 21 22 24 26 26 27 30 31
35 30 29 29 28 25 24 22 23 23 21 20 21 19 19 20 20 19 18 18 18 18 17 17 16 16 15 14 15 15 15 16 16 15 16 17 18 17 18 19 19 20 22 24 26 26 27 28 29
34 32 32 31 30 28 26 25 25 25 22 21 22 23 23 24 26 24 22 21 21 20 20 20 20 20 20 17 17 18 17 19 19 20 19 19 20 20 22 22 23 23 23 25 26 26 27 28 30
38 37 35 34 32 31 30 26 26 25 22 23 23 24 27 25 29 29 26 25 24 23 23 24 23 25 24 22 20 20 21 20 21 23 25 24 24 25 25 26 26 26 26 26 28 30 30 31 32
40 38 36 35 34 34 32 27 27 27 23 25 25 27 27 28 30 31 29 28 27 27 27 28 28 28 28 26 26 24 24 25 26 26 27 29 30 29 30 30 30 30 29 29 30 31 32 33 34
38 36 36 36 35 35 32 29 28 28 26 29 28 28 28 29 31 31 32 30 30 30 31 31 32 32 31 30 29 29 30 29 30 31 32 32 33 34 34 34 34 35 35 33 34 36 37 38 38
36 35 36 36 35 36 34 32 27 27 30 29 28 28 29 30 32 32 33 34 33 33 34 34 35 36 36 35 33 34 35 34 35 36 37 38 38 38 39 39 40 40 41 40 40 41 42 43 43
36 37 37 36 37 36 32 34 29 27 30 29 29 29 30 30 31 32 33 35 34 34 35 36 37 38 39 39 38 38 39 40 40 41 42 44 44 45 45 45 46 46 46 45 45 46 47 47 48
38 38 37 37 37 36 33 33 32 32 31 31 32 31 32 31 32 33 33 35 36 37 37 37 38 40 41 42 42 42 44 45 45 46 48 49 49 50 51 52 53 53 53 51 52 52 53 54 53
41 40 38 38 37 37 35 35 35 36 35 34 34 33 33 34 35 35 36 38 39 40 41 42 42 43 43 45 47 48 48 49 51 52 53 54 55 55 56 58 58 57 57 57 56 57 58 58 58
43 42 41 41 40 39 40 40 38 38 39 37 36 36 36 35 36 39 41 42 42 43 44 45 46 47 47 48 50 52 53 54 55 56 56 57 58 58 59 59 59 58 58 58 60 61 61 61 60
47 46 44 44 45 45 45 44 42 43 42 43 41 40 41 41 41 41 42 43 45 47 48 49 49 50 52 53 54 55 57 57 59 59 59 59 58 58 59 60 60 61 61 62 63 63 63 63 62
52 50 49 50 50 50 49 48 48 48 47 47 47 48 46 46 46 46 47 47 48 49 50 51 51 52 54 55 57 59 59 58 57 58 59 59 60 59 59 59 60 62 63 64 63 63 63 64 63
54 54 53 52 53 53 53 53 53 53 52 53 52 52 53 53 51 51 51 52 52 53 53 53 53 53 54 55 55 56 58 60 60 59 59 59 60 61 61 60 61 61 61 62 62 61 62 64 65
57 56 57 59 57 56 55 54 56 57 57 57 57 56 54 52 52 51 52 53 53 53 54 54 54 54 54 55 55 55 56 57 57 57 58 58 60 60 59 59 60 61 63 64 64 65 65 66 66

GFSSGP_500_spd_087.txt.gz
Wind_Speed
21 18 15 16 16 14 13 14 13 15 17 16 14 12 12 14 13 10 8 10 13 11 11 14 12 11 11 9 7 14 14 10 11 8 7 7 5 5 5 5 6 7 9 8 7 8 8 8 9
20 19 16 15 16 14 13 14 13 14 16 15 16 17 19 19 15 13 11 12 15 18 15 17 14 11 12 10 9 14 13 10 7 5 6 6 5 4 3 5 5 6 6 6 7 7 8 9 10
22 20 18 17 16 15 13 14 13 14 15 15 15 16 18 21 20 19 17 15 15 19 22 12 12 9 8 7 8 9 8 7 6 5 3 3 4 4 6 6 5 5 6 6 7 7 8 10 11
22 20 19 18 17 16 15 15 14 13 14 15 15 14 17 19 18 18 17 18 19 19 18 17 18 14 12 11 10 10 10 8 7 6 5 4 3 3 2 3 3 4 5 7 6 7 7 8 9
23 22 20 19 17 17 17 17 17 16 16 14 15 13 14 15 15 15 15 16 17 18 18 18 16 14 15 15 15 14 13 11 11 9 7 5 4 3 2 2 3 4 5 6 7 8 9 10 11
23 22 20 18 16 15 16 16 16 15 16 13 14 15 14 14 14 15 14 13 14 15 15 15 15 16 15 14 13 13 12 11 9 8 6 4 3 1 0 2 3 5 6 7 8 9 10 11 12
24 23 21 19 17 15 16 14 15 15 14 14 13 12 12 10 11 12 12 12 12 12 12 13 12 12 12 12 12 12 12 11 9 8 6 4 2 1 1 2 3 4 5 5 6 7 7 8 10
25 24 21 20 18 15 15 15 14 15 13 12 12 10 9 8 8 9 9 9 9 9 10 10 10 9 9 9 9 8 8 7 6 5 4 3 1 1 2 3 5 5 7 7 8 8 9 10 11
26 24 22 20 18 16 12 14 13 13 14 12 12 11 9 7 6 7 8 8 8 8 8 8 8 8 7 6 6 6 5 4 3 3 4 4 4 4 5 6 7 8 8 8 9 10 11 12 13
27 25 23 21 20 17 13 11 12 11 11 11 10 10 9 8 6 6 6 5 6 6 6 6 6 6 5 5 4 3 2 3 3 3 4 5 5 6 7 9 10 11 12 13 14 14 15 16 17
28 26 23 21 19 18 16 13 11 10 9 9 8 7 8 7 6 5 5 4 3 3 4 4 4 3 3 3 3 3 4 4 5 5 6 7 8 9 9 10 11 12 13 14 16 17 17 18 19
29 27 25 21 19 17 15 14 11 8 7 6 6 5 5 7 5 6 6 5 3 3 2 3 3 4 4 5 5 5 6 6 6 6 7 8 10 11 12 13 14 15 15 16 17 18 19 20 20
30 28 25 23 20 17 14 12 10 9 7 7 5 5 5 5 6 6 5 5 4 4 3 3 2 1 2 3 5 6 7 7 7 8 8 9 10 11 12 14 16 17 18 19 20 21 22 22 23
32 30 27 23 22 20 17 14 12 11 10 9 7 6 6 7 8 8 7 7 6 6 5 4 4 4 3 4 5 7 9 9 9 9 11 11 11 12 13 14 15 16 17 18 19 20 21 22 23
34 32 28 25 23 20 18 16 17 12 15 13 11 11 10 9 11 10 12 11 10 9 9 9 8 7 7 7 7 8 9 9 11 11 12 12 12 13 14 15 15 16 17 18 18 19 19 21 21
34 32 30 27 25 21 19 17 17 15 14 14 14 14 16 14 14 14 15 14 14 14 13 12 13 12 12 11 11 10 10 11 12 13 15 14 14 14 15 15 16 18 20 21 21 21 21 22 23
36 31 28 27 26 24 22 20 20 19 17 17 19 19 20 20 21 19 16 16 17 18 18 17 17 17 16 15 14 13 13 14 15 16 17 18 18 18 18 19 20 20 22 23 23 23 23 24 24
32 31 30 29 29 27 25 24 24 22 20 20 22 24 23 24 26 23 21 19 20 20 20 21 21 22 21 18 17 17 17 18 18 18 20 20 22 23 22 22 24 24 24 25 26 27 27 27 27
36 36 35 35 32 30 28 26 26 24 21 23 25 24 24 26 29 26 26 24 23 23 23 23 23 24 23 23 23 22 21 20 22 23 23 24 24 26 26 26 27 28 28 28 29 30 31 32 31
39 38 36 35 34 33 30 29 28 27 25 25 26 26 25 27 29 28 27 27 26 27 26 26 28 27 28 28 28 26 26 25 27 27 29 30 29 29 30 31 32 33 33 34 34 35 35 36 36
38 38 35 36 36 36 33 30 29 30 28 27 27 28 27 27 28 28 29 29 29 29 30 30 30 31 31 32 32 31 31 31 32 33 33 34 35 36 36 36 37 38 39 39 39 40 42 43 42
40 37 38 39 38 38 36 33 29 31 30 28 28 29 28 28 29 29 29 30 30 31 31 32 33 33 34 35 35 36 36 36 38 38 39 38 40 41 42 42 43 44 44 45 46 46 48 50 48
39 37 38 38 38 40 36 35 31 30 31 29 28 28 29 28 28 29 29 30 31 32 32 33 34 35 36 37 37 38 39 40 42 42 44 44 45 46 47 48 49 50 51 51 52 53 55 56 55
39 38 38 39 40 42 36 35 33 31 31 31 31 31 29 28 28 28 29 30 31 32 34 34 35 36 37 38 39 41 41 42 43 45 47 49 50 51 52 53 54 55 56 55 55 57 58 59 60
40 38 39 40 41 41 36 36 35 35 34 34 33 33 32 31 30 31 32 33 34 34 35 36 38 39 40 41 42 43 44 46 47 48 50 52 54 54 56 57 58 59 60 60 60 60 59 60 61
38 38 39 39 39 38 38 40 37 37 37 34 33 32 32 32 33 34 35 36 38 38 39 40 42 43 44 45 46 48 49 50 52 53 55 56 57 58 59 61 62 63 63 63 63 63 62 62 63
41 42 41 40 41 41 43 42 39 39 38 35 35 36 36 35 35 35 35 36 38 40 42 44 45 46 47 48 50 52 53 55 56 57 58 59 61 61 61 61 61 62 63 64 64 63 62 63 65
44 45 45 45 44 45 44 44 42 41 41 41 41 40 40 40 39 40 41 41 42 43 43 46 48 49 51 51 52 53 53 54 56 57 57 58 59 60 62 64 64 64 63 63 65 64 65 64 65
47 46 46 47 48 48 49 48 46 46 45 45 46 46 47 46 45 45 46 47 48 49 50 51 52 52 51 52 53 54 55 55 57 59 59 60 62 63 63 62 63 63 63 64 62 61 61 60 60
50 49 49 54 52 52 51 51 51 51 50 50 51 52 51 50 49 49 50 50 50 50 51 52 52 53 54 54 55 55 54 55 56 56 55 56 56 58 58 59 60 60 60 62 63 63 64 65 66

GFSSGP_500_spd_090.txt.gz
Wind_Speed
24 20 18 19 17 15 15 14 13 14 14 15 12 9 8 7 8 9 11 12 13 5 7 11 11 10 11 12 11 11 14 9 10 14 9 7 6 5 5 5 5 5 7 8 8 8 7 8 8
24 21 19 18 18 17 15 14 14 15 16 17 15 12 12 12 10 12 11 13 16 8 15 14 15 15 13 11 9 15 17 12 10 4 5 5 5 4 2 3 4 4 6 6 8 8 9 9 10
25 23 20 18 16 16 16 14 15 14 16 16 16 14 15 16 18 18 17 14 18 17 15 10 11 12 11 9 11 10 11 7 5 4 2 4 5 4 4 5 6 7 6 6 6 8 8 9 10
26 23 21 19 17 16 16 15 15 15 15 16 15 15 14 16 18 19 19 19 18 16 16 16 11 10 8 8 8 6 6 6 5 5 4 4 4 4 3 3 3 4 5 6 7 8 8 8 9
28 25 23 21 20 18 17 16 16 15 15 14 14 13 12 13 16 18 17 18 18 19 16 15 16 16 13 9 8 7 7 7 6 5 5 4 2 0 1 2 3 4 5 6 7 9 10 10 11
29 27 25 22 21 20 19 18 19 16 16 14 14 13 12 13 14 17 16 15 15 16 17 17 16 15 14 13 12 11 10 9 8 8 5 4 3 1 2 4 5 7 7 9 10 10 10 10 10
30 28 27 24 21 20 20 19 17 16 15 15 14 14 13 11 11 14 14 13 13 13 13 14 13 13 13 13 12 12 11 9 8 6 5 4 2 1 2 3 5 6 7 7 8 9 10 11 11
32 31 28 25 23 21 19 19 17 16 15 14 13 11 11 9 8 10 12 11 11 10 11 12 11 11 10 9 9 8 7 7 6 5 3 3 2 3 3 4 5 6 7 8 8 10 10 11 12
33 32 28 26 24 22 20 19 18 15 14 14 12 10 9 8 7 8 10 10 8 8 8 9 9 9 9 8 7 7 6 5 4 3 4 4 5 6 6 7 8 8 9 11 12 13 13 14 15
33 31 30 27 26 24 20 18 18 16 15 14 12 10 9 8 8 8 7 8 7 6 6 6 6 6 6 6 6 6 6 6 5 5 4 5 6 7 8 9 9 10 11 12 13 15 16 16 17
34 32 30 28 25 24 22 19 17 16 14 13 13 11 10 9 8 6 6 5 5 5 5 5 5 5 5 5 5 5 5 5 5 6 7 7 8 8 9 10 11 12 13 14 15 16 17 18 18
35 34 32 29 26 24 23 20 18 15 15 13 11 11 10 10 9 7 6 5 4 4 4 4 5 5 4 4 4 5 5 5 5 6 7 8 10 11 12 13 14 15 16 17 18 19 20 20 21
36 35 32 30 28 26 23 21 19 17 15 12 11 10 10 11 11 10 6 5 4 4 4 3 3 3 2 1 3 5 7 8 7 7 7 8 9 10 11 12 14 15 16 16 17 18 19 19 20
39 36 33 31 30 27 25 22 19 18 15 13 10 9 10 11 12 12 11 9 7 6 6 5 4 3 4 4 5 7 9 9 8 8 8 9 10 10 11 12 13 14 15 16 18 19 20 20 20
40 38 36 34 30 28 25 22 20 16 15 14 12 12 11 12 12 13 14 13 12 10 10 8 8 7 7 7 8 8 9 10 10 10 10 11 12 12 12 11 11 13 15 16 17 19 20 20 21
42 40 39 35 32 29 26 23 21 18 17 15 15 16 16 16 15 16 16 14 14 14 13 12 12 12 12 11 11 12 12 12 13 13 13 14 15 16 16 16 16 16 17 18 19 20 21 22 23
45 42 37 35 33 30 28 26 23 21 20 19 19 19 20 20 20 18 16 15 15 16 16 16 16 17 17 16 15 15 16 16 15 17 17 18 18 18 19 20 20 20 21 23 23 25 25 27 26
43 38 36 35 33 32 29 27 25 24 22 22 21 21 23 24 22 21 20 19 18 19 19 20 21 22 21 20 19 18 19 19 19 20 21 22 23 23 23 23 23 24 25 26 27 28 29 30 31
41 39 38 39 36 34 31 29 27 25 25 24 24 23 24 26 25 24 25 24 23 23 22 22 23 24 23 23 23 23 23 23 24 25 26 26 28 28 28 29 29 30 30 31 33 34 35 36 38
44 42 41 40 39 36 34 31 30 28 28 26 26 25 25 26 27 26 26 27 28 28 27 26 27 26 27 27 27 27 27 27 29 30 32 32 32 32 33 33 34 35 36 36 37 39 40 41 42
43 43 41 39 39 38 35 34 34 31 30 29 28 28 27 28 27 26 26 28 29 29 29 29 30 30 30 31 31 32 31 32 34 35 37 37 38 38 38 39 40 41 41 42 43 44 45 45 47
43 41 41 41 40 41 38 37 35 34 32 31 30 30 29 28 29 28 27 28 29 29 31 31 32 33 34 34 33 34 35 36 38 39 40 40 42 43 43 44 45 46 47 48 49 49 50 52 52
41 41 41 42 43 43 40 39 36 35 34 32 31 30 30 28 29 29 29 29 30 30 30 31 32 33 34 36 36 37 37 38 40 41 42 43 44 46 47 49 50 51 52 53 54 54 56 57 58
43 43 43 44 44 46 41 41 37 36 35 34 32 31 30 30 29 29 30 30 30 31 32 32 33 34 35 36 38 38 40 41 42 44 45 47 48 49 51 52 54 55 57 58 59 60 61 61 62
44 44 45 45 46 47 42 41 39 37 35 36 35 33 32 32 32 32 32 33 33 33 34 34 35 36 37 38 39 41 42 43 45 47 48 50 51 53 54 56 58 59 60 61 62 64 64 63 63
42 41 41 41 43 43 42 42 41 38 38 37 36 35 35 34 34 34 35 35 35 36 36 37 38 39 41 41 43 44 46 48 49 50 52 53 54 56 58 60 61 62 64 65 65 65 64 65 66
41 42 40 40 42 43 44 42 40 39 38 36 35 36 35 34 33 33 33 34 35 36 38 40 41 42 43 44 46 47 49 51 52 54 56 56 58 60 61 62 64 64 64 65 66 67 68 66 66
42 41 41 42 43 43 44 41 40 38 35 35 36 37 38 38 37 36 36 36 37 39 39 41 42 44 45 47 48 50 52 53 54 55 56 58 59 60 61 62 64 66 66 66 66 66 65 64 64
43 41 40 42 44 43 43 41 38 37 38 39 40 40 40 39 40 42 42 43 43 43 44 45 47 48 50 50 50 51 52 53 55 55 57 58 59 60 62 63 64 63 62 61 61 62 63 63 64
48 46 45 45 42 44 44 44 43 43 42 43 44 45 45 45 46 47 46 46 46 47 49 50 52 53 53 54 54 54 54 55 54 56 58 59 58 58 57 58 59 60 62 64 66 66 67 68 69

GFSSGP_500_spd_093.txt.gz
Wind_Speed
22 20 19 17 17 12 13 10 10 9 7 7 7 9 9 8 5 6 8 8 8 1 6 11 11 17 15 13 13 10 8 6 6 7 8 4 5 5 5 5 6 6 7 7 7 8 8 9 9
22 21 20 19 18 16 13 12 11 11 10 11 13 11 9 9 7 9 9 11 13 10 9 8 11 10 10 13 11 11 12 9 8 11 9 5 4 4 4 3 4 5 5 6 8 8 10 10 12
25 23 21 21 19 20 17 14 12 12 11 12 14 16 13 14 13 16 12 16 18 14 9 10 11 12 11 8 8 10 14 9 6 1 2 2 3 4 4 5 5 6 6 7 8 9 9 10 11
27 24 22 23 21 18 17 16 13 12 13 12 13 15 13 14 14 17 18 16 17 18 14 10 9 8 7 4 4 4 10 5 4 3 2 2 2 3 4 4 4 5 5 7 7 8 9 10 11
30 26 24 21 20 20 18 17 14 13 13 13 12 14 12 12 12 16 16 20 18 17 16 17 14 12 8 6 4 6 6 4 3 2 3 4 4 3 4 4 4 6 7 8 9 10 11 11 11
31 28 25 24 22 20 19 18 16 15 13 12 13 12 12 11 10 13 14 17 17 17 18 17 15 14 14 13 13 12 11 9 8 7 6 5 3 4 5 6 7 7 8 8 9 9 10 11 12
33 31 28 27 24 22 21 19 18 16 14 14 12 13 12 11 8 10 12 14 15 15 15 15 15 15 14 13 12 11 10 9 7 6 5 5 4 5 5 5 6 6 8 9 9 10 11 12 13
34 32 28 26 25 24 22 20 18 17 15 14 13 11 10 9 7 7 8 11 13 13 13 12 12 12 12 11 11 10 9 8 7 6 6 6 6 6 6 7 7 8 8 9 10 11 12 13 14
37 34 31 28 25 24 23 21 19 18 16 14 13 11 9 8 8 5 6 7 10 11 10 10 11 11 10 10 11 10 9 8 8 7 7 7 7 8 8 9 9 10 11 11 12 13 14 15 15
39 37 33 30 28 27 24 22 20 18 16 14 12 11 9 8 7 7 4 5 6 9 9 8 7 8 8 8 8 7 7 7 7 7 7 8 8 8 9 9 10 11 12 14 15 16 16 17 18
41 37 35 34 30 28 25 23 20 19 17 16 14 12 11 9 7 6 6 5 5 5 6 6 6 6 7 7 7 7 6 6 6 6 6 7 8 9 10 11 12 13 13 15 16 17 18 19 20
40 40 37 34 33 30 28 25 22 21 18 16 14 13 11 10 9 6 5 4 3 5 5 4 5 5 6 5 6 6 7 8 8 8 8 8 9 10 11 12 13 13 14 14 15 17 18 19 20
43 42 38 37 35 31 29 27 24 22 21 18 16 14 13 12 11 9 7 6 5 5 5 4 3 3 2 3 4 5 7 8 8 9 8 9 9 10 11 12 12 13 13 14 15 15 16 17 19
43 42 40 39 35 34 31 28 26 24 22 20 18 16 14 14 13 11 10 9 7 7 6 4 3 3 2 3 4 5 7 9 9 9 10 11 11 12 12 12 12 13 13 14 15 15 16 17 18
45 43 43 40 37 35 33 30 26 25 22 20 18 16 15 16 14 13 12 11 10 8 9 7 7 7 7 7 7 8 8 9 9 10 11 12 14 14 15 14 14 15 16 17 17 18 20 20 20
47 45 45 42 39 36 33 32 30 26 24 22 20 19 17 16 13 14 15 13 13 13 12 11 12 13 12 12 12 12 12 13 12 13 14 14 15 16 18 19 19 19 20 21 22 22 23 25 26
49 47 46 43 40 37 35 33 30 28 26 24 22 20 19 17 16 15 15 15 16 17 17 17 17 18 17 17 17 17 16 17 16 17 17 17 19 20 20 21 22 23 24 25 26 27 28 29 30
51 50 46 41 40 38 36 33 32 29 27 26 24 22 20 19 18 18 18 19 18 19 20 20 21 22 22 21 21 21 22 22 21 21 21 22 23 23 24 25 26 27 28 29 29 31 32 34 35
50 47 44 43 40 40 38 36 33 31 29 28 25 23 22 21 20 21 21 22 22 23 23 23 23 24 23 25 25 25 25 26 26 26 27 28 29 30 29 30 31 32 33 34 35 36 38 38 41
47 44 46 46 45 43 41 37 37 33 31 29 28 26 25 23 23 24 24 24 25 26 27 26 27 27 27 28 27 27 28 29 30 31 33 33 34 34 35 35 36 37 38 39 40 42 43 44 46
47 47 49 48 46 44 42 40 39 36 34 32 30 28 27 26 25 25 25 26 26 27 28 29 30 31 31 31 30 31 32 33 35 35 37 37 38 38 39 40 41 42 43 44 45 47 48 50 51
46 47 48 49 46 46 45 43 44 40 37 35 32 30 29 28 28 27 27 27 27 28 30 31 32 34 34 34 34 35 35 35 37 38 40 40 41 42 42 43 45 46 47 48 50 52 53 55 56
48 46 46 47 47 47 46 46 46 41 39 35 33 32 31 30 29 29 30 30 29 30 30 32 33 34 35 36 37 37 38 39 39 40 41 42 44 45 47 48 49 50 51 52 54 55 57 59 60
48 46 47 47 48 50 48 47 47 43 39 36 35 34 33 32 32 32 32 33 32 32 32 33 33 34 35 36 37 38 39 40 41 42 43 45 46 47 49 50 52 53 54 55 57 59 60 62 64
49 48 50 51 51 53 50 47 45 42 39 38 37 37 36 35 34 34 34 35 34 33 34 35 35 36 37 38 39 39 40 41 42 43 45 47 48 50 52 53 54 55 57 59 60 62 64 65 67
49 49 51 50 50 49 47 47 47 43 41 40 39 38 38 37 36 36 36 36 35 35 36 37 38 39 40 41 41 42 43 44 45 47 49 50 51 52 54 56 58 59 60 62 63 63 64 64 66
50 49 48 47 49 49 50 48 47 45 42 41 39 38 38 38 38 37 37 37 36 37 37 39 40 41 41 42 43 44 45 47 48 50 51 52 53 55 57 58 60 61 63 64 65 66 66 67 67
48 46 46 46 48 49 50 50 48 44 39 39 38 37 37 37 37 36 36 36 36 38 39 40 41 42 42 44 45 46 47 49 50 52 54 56 57 58 59 60 60 60 62 64 65 65 63 61 61
48 48 48 48 47 45 46 49 44 40 39 40 39 38 37 37 37 37 37 38 39 39 40 40 42 44 45 47 48 49 50 51 53 54 54 55 56 57 56 58 59 61 62 62 61 61 61 62 64
46 45 44 45 45 45 45 48 47 42 40 39 38 37 37 38 40 41 41 43 43 43 44 46 48 49 50 51 52 53 54 54 54 54 54 54 55 58 61 62 62 63 63 65 67 67 71 73 75

GFSSGP_500_spd_096.txt.gz
Wind_Speed
19 19 18 17 15 11 10 8 6 5 5 4 6 5 6 6 6 6 8 6 2 2 1 6 10 14 9 13 11 8 7 6 5 3 5 9 9 6 4 4 4 5 5 6 6 7 8 9 10
23 21 19 18 17 14 11 10 9 8 7 7 8 7 8 7 9 10 10 13 12 12 7 6 9 13 13 11 12 8 6 6 2 8 9 4 4 1 1 3 4 4 6 7 8 8 9 10 11
25 23 22 21 21 20 17 13 10 9 9 11 11 14 14 14 14 13 11 13 15 16 14 11 10 9 8 9 8 8 8 4 1 5 5 3 2 1 3 4 5 5 5 6 8 8 10 11 12
27 24 23 22 19 14 16 15 12 11 11 11 12 16 17 15 16 16 12 14 17 15 15 15 13 11 9 5 2 2 10 6 3 5 5 4 4 3 3 4 5 6 7 9 10 11 11 11 12
30 27 27 25 20 19 18 15 14 12 11 10 12 15 16 14 14 17 17 15 17 18 18 13 11 9 8 7 8 13 11 8 8 8 8 7 7 7 7 6 7 8 9 9 10 10 11 12 13
31 29 26 25 22 21 20 19 16 13 12 11 11 13 15 14 12 15 16 16 19 19 18 18 16 16 16 15 15 16 15 13 12 10 9 8 8 8 8 7 7 8 9 10 10 11 11 12 12
33 30 28 28 26 24 22 20 18 15 13 11 11 12 15 14 11 12 15 15 16 18 19 18 18 18 17 15 16 15 14 13 12 11 10 10 9 9 8 8 8 8 9 9 9 10 10 11 13
35 33 31 28 28 26 24 21 18 16 14 13 11 11 13 13 11 9 11 13 14 15 17 17 17 16 15 14 14 13 12 12 12 11 10 10 10 9 9 8 8 8 9 10 12 12 13 14 15
37 33 30 28 27 27 26 23 19 19 17 15 12 11 10 10 11 9 9 10 11 13 15 16 16 16 15 14 14 14 13 13 12 10 9 9 9 8 9 9 10 10 11 12 13 14 15 16 17
40 36 32 32 30 28 27 25 21 19 18 16 12 10 10 9 10 9 8 7 8 9 10 12 13 13 13 13 12 12 11 11 10 9 9 9 9 9 9 9 9 10 11 12 13 14 14 15 16
39 37 38 34 29 28 26 25 24 21 19 17 14 11 11 9 9 8 7 5 5 7 8 9 10 12 12 12 12 11 11 9 8 8 7 7 7 7 8 9 10 11 12 13 14 14 15 15 16
42 42 39 35 34 31 29 26 25 23 18 17 16 13 12 10 9 8 6 6 5 5 7 8 8 9 9 9 9 9 10 10 10 9 9 9 9 9 10 10 11 12 13 13 13 14 14 15 15
42 42 39 38 36 32 30 29 27 24 22 20 18 16 13 12 10 9 7 6 6 7 6 6 5 5 5 5 6 6 7 8 8 8 8 9 9 10 10 11 11 11 11 13 14 15 16 16 17
45 43 42 40 37 35 33 31 28 26 24 22 19 17 15 13 11 9 8 8 8 8 7 6 4 3 1 0 1 3 5 6 7 8 9 10 10 11 12 12 12 13 14 15 16 17 18 20 20
50 47 46 44 40 37 36 33 30 28 26 24 22 19 17 16 14 11 9 8 8 7 7 6 5 6 5 6 6 6 7 8 8 9 9 10 12 13 14 15 16 16 17 19 20 21 21 22 23
49 50 51 46 42 40 38 36 36 31 28 26 24 22 20 18 16 14 14 12 11 11 10 9 11 11 11 10 11 11 12 13 14 14 15 14 15 16 16 17 18 18 20 21 23 24 24 25 25
53 50 52 48 44 42 40 38 34 32 29 27 25 22 21 20 17 15 15 15 15 16 16 16 16 16 16 16 16 17 17 18 19 18 18 18 19 19 21 20 21 22 24 25 26 27 29 30 32
56 54 52 49 45 42 41 39 36 34 32 29 27 23 22 20 17 16 17 17 17 18 19 20 21 20 21 20 21 21 22 22 22 23 22 22 24 25 26 26 26 27 28 30 31 33 34 35 37
51 51 51 46 45 44 41 41 40 38 34 32 29 26 24 20 18 18 17 20 19 20 21 22 22 22 22 23 24 25 25 26 26 26 27 28 28 28 29 30 30 31 33 34 36 37 39 40 42
57 55 54 51 46 46 47 44 42 40 36 34 30 28 25 22 21 20 19 20 21 22 24 25 25 26 25 27 27 27 28 30 31 31 31 32 33 33 33 34 36 37 38 39 41 42 44 45 47
55 54 53 49 46 47 47 46 44 43 36 36 32 29 27 24 22 21 22 22 23 24 25 27 28 29 29 29 30 30 31 32 34 34 35 36 37 37 38 39 40 41 42 44 45 46 47 48 50
53 54 52 52 49 50 50 49 45 44 41 37 34 32 29 27 25 24 24 23 25 25 26 27 29 30 30 29 32 32 33 34 36 37 38 39 40 40 41 41 42 43 44 45 47 49 51 52 53
51 51 51 51 51 52 52 52 48 48 44 40 37 34 31 29 27 27 26 26 27 27 29 30 31 32 33 33 34 35 37 37 38 39 40 41 42 43 44 45 46 46 48 49 51 52 53 55 57
51 49 50 51 52 56 54 54 53 51 47 43 38 36 34 32 30 31 29 29 30 30 31 32 33 33 34 35 36 36 38 39 39 40 42 43 43 45 45 47 48 50 51 52 54 55 57 59 60
50 49 50 52 57 60 57 58 56 52 46 40 40 38 36 35 33 34 32 33 33 33 33 34 35 36 36 37 37 38 39 40 40 41 42 43 44 46 48 49 50 51 53 55 56 58 59 60 61
50 51 53 53 55 57 55 58 55 49 45 43 42 40 39 37 37 36 36 36 36 35 36 37 37 38 39 40 40 40 40 41 42 44 45 46 46 48 49 50 52 54 56 58 59 61 61 60 61
50 52 50 52 53 54 55 56 53 50 49 45 42 40 40 39 39 39 38 38 37 37 37 38 40 41 43 43 42 42 42 42 43 44 45 47 48 50 52 54 56 57 58 59 59 58 59 62 63
47 46 47 50 50 52 54 54 53 49 45 43 43 42 41 41 40 39 39 39 38 38 38 39 40 41 42 41 41 42 43 44 45 46 48 50 52 53 54 55 57 56 56 56 59 61 61 60 61
53 52 48 49 48 50 52 53 49 44 43 43 43 43 41 40 40 38 38 38 38 39 39 40 40 40 41 42 43 44 46 47 49 50 51 52 53 53 52 52 54 58 60 60 58 57 57 59 61
48 50 47 48 49 51 50 50 48 44 41 41 39 38 37 38 38 38 38 38 38 39 38 38 39 42 44 45 45 47 49 49 50 51 53 53 53 53 55 59 58 57 54 53 54 57 60 63 65

GFSSGP_500_spd_102.txt.gz
Wind_Speed
21 23 23 21 19 16 11 11 10 6 4 3 2 6 8 6 5 7 3 4 2 3 4 8 10 8 9 14 10 6 5 5 4 3 2 9 12 7 6 3 1 1 2 4 4 4 4 5 6
22 23 23 22 20 17 14 11 9 7 6 4 3 6 8 7 5 5 10 11 8 4 6 12 15 13 14 14 6 6 4 3 1 7 11 11 11 7 4 2 0 1 1 2 3 4 5 6 7
25 25 25 25 22 17 15 15 11 10 10 8 8 10 9 8 10 9 11 13 13 12 12 16 21 17 13 10 8 3 3 3 5 10 11 9 8 5 2 2 3 3 3 4 5 6 8 9 9
29 28 28 26 21 19 19 16 13 12 11 11 14 15 11 10 13 12 11 13 19 21 24 22 19 14 13 10 8 5 6 9 11 16 12 9 7 6 6 6 6 4 5 6 7 7 8 8 7
31 31 31 27 23 21 20 17 16 14 13 13 15 16 12 12 16 13 12 14 17 20 23 23 21 18 12 9 7 12 12 11 12 13 11 11 10 9 7 7 8 6 6 7 7 6 6 6 6
34 35 33 27 25 22 22 20 18 15 14 13 15 16 12 13 16 15 13 18 18 17 18 17 18 18 15 23 21 15 15 16 16 14 13 11 10 9 8 8 7 6 6 5 6 6 6 7 7
36 36 33 29 27 24 25 22 20 18 16 14 15 15 13 13 16 17 16 18 20 21 23 23 22 22 22 22 22 20 19 17 16 14 13 12 10 9 8 7 6 6 4 5 5 6 7 8 9
38 38 35 30 26 27 25 22 19 18 17 16 16 17 15 15 17 16 16 18 19 22 24 26 25 23 22 21 21 19 18 17 15 13 12 11 9 8 7 6 6 5 6 7 8 8 8 8 9
39 40 35 31 29 28 26 24 22 20 18 18 18 16 17 16 19 18 17 17 18 19 20 21 24 23 21 21 19 18 17 15 13 11 10 9 7 6 6 6 6 7 7 8 9 9 10 10 11
41 41 37 33 31 28 28 27 26 23 21 19 18 17 16 15 19 20 19 17 18 19 20 19 21 22 21 20 18 16 14 13 11 9 8 6 6 5 6 6 6 6 7 8 8 9 10 11 11
43 43 41 34 33 31 30 29 27 24 22 21 20 18 16 16 16 20 19 17 16 18 18 18 20 20 19 18 16 15 14 12 11 10 9 8 7 7 7 6 7 7 7 8 8 9 9 9 11
42 44 44 40 36 32 32 31 28 26 26 24 22 19 18 18 15 16 18 16 19 18 18 18 16 17 17 17 15 14 12 11 10 9 8 7 6 5 5 6 6 6 7 8 9 10 12 14 15
56 49 49 44 39 36 36 33 30 30 29 27 23 20 18 17 16 14 17 16 17 18 17 16 14 13 12 11 11 9 8 7 6 5 5 5 5 5 5 6 6 8 9 10 11 13 14 15 16
47 54 53 45 41 38 38 35 33 31 30 29 26 23 20 19 17 15 14 17 18 16 17 14 13 11 9 9 7 5 3 2 2 0 2 3 5 7 8 9 9 10 11 13 14 16 18 19 20
52 57 54 47 44 42 41 39 36 34 32 30 26 23 22 20 18 17 16 14 17 17 16 14 12 10 8 6 6 6 5 5 5 5 7 7 8 10 10 11 12 13 14 17 19 20 21 22 24
60 59 56 51 48 45 44 37 38 35 33 29 27 25 24 22 19 17 17 17 16 17 16 14 14 13 12 11 11 10 10 10 10 11 12 13 15 16 16 16 17 18 20 21 23 24 26 27 28
62 60 58 54 50 47 44 42 40 37 34 31 29 28 25 23 20 20 19 18 17 17 18 18 16 15 14 13 13 13 15 16 17 18 19 18 18 19 20 21 23 24 26 27 28 30 30 32 32
59 62 58 55 51 49 46 42 41 38 36 35 33 30 28 24 24 23 21 20 20 20 19 19 18 17 17 18 19 19 20 20 21 22 22 22 22 22 24 26 26 28 31 31 33 33 33 35 35
57 56 55 54 52 50 46 45 43 41 40 36 35 33 30 27 26 25 24 23 22 22 21 21 22 21 20 21 21 22 22 23 24 24 24 25 26 28 28 30 32 32 33 34 36 37 37 37 37
55 55 56 54 52 51 50 48 46 45 42 40 40 37 33 31 30 27 26 25 24 23 22 22 22 23 23 24 24 25 26 26 27 28 29 29 29 30 30 31 33 36 36 37 38 38 39 40 41
58 56 54 55 53 53 53 53 52 50 47 45 42 40 36 34 33 29 29 28 27 25 24 24 23 25 26 27 27 28 28 29 29 30 31 32 32 33 33 34 34 36 37 38 39 41 41 42 44
59 55 52 55 56 57 55 56 53 50 49 47 45 43 38 36 34 32 31 31 29 27 26 25 24 25 27 28 28 30 29 30 30 31 32 32 33 34 36 36 37 38 39 40 42 43 44 45 46
54 49 47 49 51 55 56 58 55 55 53 49 46 42 39 39 37 36 33 33 31 29 27 27 25 26 27 28 29 30 31 32 31 32 33 34 35 36 37 38 40 41 41 43 44 45 46 48 50
42 42 45 48 52 58 57 58 58 56 51 46 47 45 43 40 39 38 36 34 32 31 30 29 29 28 28 30 31 31 32 35 35 35 35 35 36 38 40 41 43 44 44 44 45 48 50 53 54
56 41 46 51 56 60 58 60 60 57 54 50 50 47 44 42 41 41 39 37 36 34 32 32 32 32 31 32 33 33 34 36 37 38 39 38 38 39 41 42 43 44 45 47 49 51 53 55 56
58 48 52 57 58 59 60 66 64 56 54 50 48 48 47 44 43 42 41 40 39 37 35 35 35 35 35 36 36 36 36 36 38 40 42 41 40 39 41 42 44 46 48 50 52 53 54 55 56
49 57 46 49 54 55 59 59 58 54 52 48 46 46 44 45 44 43 44 43 42 41 39 39 39 38 38 38 37 37 38 39 41 42 41 41 41 42 44 45 46 48 51 52 53 55 56 55 56
50 46 47 51 54 55 58 60 61 55 51 47 46 45 44 45 46 46 45 45 44 43 42 42 41 40 39 39 38 39 40 42 42 42 41 41 42 44 46 47 48 51 52 54 55 56 55 57 58
47 53 51 47 50 51 55 60 57 52 48 45 44 45 46 46 46 46 48 46 45 45 44 42 41 40 40 40 40 42 43 43 42 41 42 44 44 46 47 49 52 54 55 55 55 55 56 57 54
48 42 43 46 49 51 52 52 52 52 46 41 40 42 43 46 47 46 45 44 43 43 43 42 41 40 40 41 43 44 44 42 42 42 43 44 45 49 52 55 56 55 55 55 54 57 56 54 54

GFSSGP_500_spd_105.txt.gz
Wind_Speed
27 28 28 26 22 18 13 13 9 8 7 3 3 3 4 3 8 7 5 5 1 4 4 11 12 13 12 9 6 3 3 0 1 3 3 6 8 10 5 1 1 3 4 5 5 5 4 5 6
27 27 30 26 21 17 14 12 9 10 6 4 4 5 4 3 8 7 5 7 2 5 8 13 11 8 15 11 10 8 7 6 6 9 10 14 10 6 2 0 1 2 3 3 4 3 4 5 7
27 29 28 24 20 16 15 14 11 10 7 6 6 5 4 5 7 9 6 6 5 10 15 18 16 18 19 14 10 7 7 6 6 11 10 9 9 5 2 1 2 3 4 4 4 4 4 5 6
28 28 25 22 20 19 17 14 13 10 9 7 7 6 6 7 8 9 8 6 12 15 20 21 18 18 15 13 8 6 8 7 12 12 11 8 5 3 3 3 3 4 5 5 4 3 4 7 9
30 29 27 24 22 21 17 14 15 13 11 11 9 9 8 7 9 10 11 9 18 21 21 19 18 17 16 13 10 10 11 11 14 14 8 7 7 6 5 5 5 5 4 4 4 5 7 7 8
31 31 29 24 23 21 18 19 17 14 14 13 12 12 10 8 9 12 11 14 18 22 24 19 17 15 15 14 14 14 11 13 13 13 11 9 8 8 6 6 4 4 4 5 5 6 7 8 10
34 32 30 26 25 22 21 22 20 18 16 15 13 13 11 10 9 11 11 13 17 19 20 20 17 20 23 20 18 17 17 16 14 13 11 10 8 7 6 5 5 5 4 5 6 7 7 9 10
37 34 32 28 26 27 23 23 21 19 18 16 14 14 14 11 11 12 13 13 18 19 20 21 21 24 26 24 21 19 17 15 14 12 11 9 8 7 6 4 3 4 5 6 6 7 8 8 10
40 37 36 31 28 28 25 25 22 21 19 18 17 14 14 15 12 13 14 15 18 18 19 19 20 22 24 23 21 18 16 15 13 11 10 8 6 5 3 3 4 5 5 6 7 8 9 9 10
43 39 37 33 31 30 28 27 25 23 21 19 18 16 16 17 15 15 16 15 18 18 18 18 18 20 21 21 20 18 16 13 12 9 7 6 5 5 4 5 6 6 6 6 7 8 9 9 10
44 38 40 36 34 33 32 29 27 26 23 23 22 20 17 18 18 17 18 16 16 20 19 21 20 19 19 19 18 16 13 12 11 9 7 6 6 5 5 5 4 4 5 6 7 8 10 11 13
48 42 43 41 38 36 32 32 29 25 25 24 23 20 19 19 18 18 19 20 18 19 20 20 20 18 16 15 16 16 14 12 11 9 7 6 4 3 3 4 5 7 9 10 12 13 13 14 15
51 50 45 44 40 39 37 32 32 29 28 26 25 23 21 19 19 18 16 18 19 19 21 20 18 15 14 12 11 11 11 8 7 5 4 2 2 4 5 7 8 9 10 12 14 15 16 18 20
48 51 51 46 44 43 39 36 34 32 30 30 28 25 22 22 21 19 18 19 21 21 21 21 19 16 12 10 8 6 5 4 2 1 3 4 6 8 10 11 12 13 14 16 18 19 20 22 23
38 47 54 56 48 45 44 42 38 38 34 33 30 28 25 23 20 21 20 20 21 22 21 19 17 16 14 12 10 8 6 5 5 4 6 7 10 13 14 15 16 17 18 19 22 23 24 26 27
30 41 49 50 51 50 49 42 40 40 36 36 32 29 27 25 25 22 21 21 22 21 23 20 19 17 14 12 12 11 10 9 8 9 11 13 14 16 17 19 21 23 24 25 26 27 28 29 31
24 38 43 49 52 53 51 44 44 43 40 38 34 32 30 27 26 24 22 22 24 23 20 19 18 16 15 14 14 14 13 13 14 16 16 16 18 19 19 21 23 25 27 29 30 31 32 33 34
40 29 38 48 56 56 53 46 46 44 42 39 38 35 31 29 29 27 25 24 24 24 24 21 19 18 18 17 17 17 18 19 20 20 20 20 20 22 24 25 26 27 29 31 32 34 35 35 35
40 29 32 43 59 57 53 48 46 46 45 44 40 36 33 33 32 28 27 25 24 24 24 23 22 21 20 20 21 21 22 21 22 23 23 24 24 24 26 28 29 31 31 33 34 34 35 36 37
33 32 34 54 60 58 53 50 50 51 48 44 41 39 37 37 32 31 29 26 26 25 26 25 24 23 24 23 23 23 24 24 24 25 26 26 27 27 29 30 32 33 34 34 34 36 37 38 40
31 34 31 59 60 58 55 54 55 54 52 50 48 43 43 39 37 35 31 30 29 28 28 27 26 25 26 27 25 25 26 27 26 27 27 27 28 29 30 31 32 33 35 37 38 40 41 42 44
32 29 41 57 52 59 58 59 58 56 54 52 47 46 42 40 37 35 32 32 32 31 30 28 28 28 28 28 27 27 27 27 28 28 29 28 30 31 32 34 34 35 36 39 40 42 44 44 44
35 39 49 57 55 53 59 61 60 59 56 53 48 46 43 41 40 38 36 37 36 33 32 31 30 29 30 30 29 28 28 29 30 30 30 31 33 34 35 37 37 39 41 42 43 44 45 46 47
47 48 50 52 57 60 59 61 61 60 56 51 48 46 43 43 42 41 39 39 38 36 34 33 32 32 32 32 32 30 30 31 33 32 32 34 35 36 38 39 41 42 43 44 44 46 48 50 51
43 47 48 51 59 63 62 65 66 62 59 55 51 49 49 48 46 42 42 42 40 38 38 37 35 33 34 34 34 33 33 34 35 34 35 36 38 40 41 42 43 44 44 45 47 49 50 52 53
46 50 50 53 55 59 69 71 69 64 60 56 52 51 50 49 46 44 44 44 44 42 40 39 39 36 35 36 36 36 36 37 37 37 38 39 41 43 44 43 43 45 45 47 49 50 52 54 57
49 52 49 54 53 59 64 69 64 59 57 53 51 50 49 46 45 44 45 45 46 44 43 42 42 40 38 38 39 40 39 39 40 40 42 43 44 44 43 43 43 45 46 49 50 53 55 58 60
51 47 52 56 53 56 63 66 66 58 54 51 51 47 46 46 45 45 47 47 48 48 46 45 44 43 42 42 42 42 42 42 42 43 44 46 46 44 43 41 44 45 48 51 55 57 60 60 60
51 54 54 51 56 56 58 62 55 53 46 47 47 46 44 45 46 47 47 49 50 50 48 47 46 44 44 44 45 44 43 44 45 46 47 46 44 42 43 44 46 49 52 57 59 61 61 59 57
48 49 46 51 54 53 60 60 56 48 42 41 42 42 44 46 47 48 47 47 47 48 47 47 47 46 45 46 46 45 46 45 48 48 46 43 42 44 44 47 52 54 57 59 61 60 60 58 59

GFSSGP_500_spd_108.txt.gz
Wind_Speed
28 30 30 26 25 22 18 18 16 10 8 7 6 2 2 2 2 3 4 4 2 1 4 8 12 11 8 9 10 9 5 4 2 3 3 7 8 11 6 3 2 3 5 5 5 7 7 8 8
27 27 29 27 25 20 18 18 14 12 9 7 7 3 2 4 2 4 5 6 1 3 9 9 9 12 12 11 11 11 10 9 8 13 12 15 11 8 4 2 3 4 3 4 6 6 6 7 8
29 29 26 24 23 20 20 18 15 11 9 8 5 3 4 4 4 4 6 8 3 7 15 12 12 20 20 16 13 11 11 11 13 13 12 11 9 6 4 4 4 4 3 4 5 6 7 8 10
30 29 25 23 22 21 22 17 16 10 9 8 4 4 4 5 4 5 6 7 7 13 18 13 19 21 21 15 11 10 10 10 13 11 10 8 6 6 4 5 3 4 4 4 6 7 8 9 11
32 28 24 20 20 23 20 17 13 11 10 10 7 5 6 6 4 5 6 7 13 19 20 16 17 19 17 13 10 10 11 10 14 11 8 7 6 6 5 5 5 4 4 4 6 7 8 9 10
34 30 21 20 21 24 20 16 14 13 13 10 9 6 7 6 6 7 8 9 15 20 18 15 14 14 13 11 10 13 12 14 12 8 9 8 7 6 6 5 4 4 4 5 6 8 9 11 11
36 30 24 24 23 21 20 18 16 16 14 11 12 8 8 7 6 7 10 9 14 19 16 14 13 14 14 10 14 12 12 13 13 11 9 8 7 6 5 5 5 5 5 6 8 9 10 11 11
40 34 29 26 23 22 22 19 17 18 15 13 13 11 8 10 8 9 10 11 12 14 14 15 15 18 17 17 16 18 17 15 13 10 9 8 7 6 6 4 3 4 5 6 8 9 11 11 11
42 37 31 27 24 23 24 21 19 20 17 15 13 13 12 10 10 9 11 12 11 14 14 15 16 17 17 17 18 17 15 14 13 11 9 7 6 5 3 3 4 6 7 8 8 9 10 12 12
45 42 34 31 27 28 28 23 23 22 20 17 16 15 13 11 11 10 12 16 14 14 14 15 15 17 18 16 15 15 13 11 10 8 7 6 5 4 4 5 6 7 7 8 9 10 10 11 13
48 44 38 36 33 31 30 26 25 25 21 21 21 18 16 15 13 13 12 14 17 15 15 16 16 16 16 14 14 13 11 9 8 7 6 5 5 4 5 5 6 6 7 8 10 11 12 14 15
46 46 41 40 34 32 31 30 28 26 27 23 21 19 17 17 17 17 16 19 20 17 16 17 17 16 17 15 13 12 12 10 9 8 7 5 5 6 6 6 7 8 10 11 12 13 15 17 19
42 45 43 42 35 34 34 33 33 31 30 25 22 22 21 18 17 16 15 14 18 20 18 18 19 18 15 14 13 12 11 10 7 4 3 2 3 5 6 8 10 12 13 15 16 18 18 20 21
39 49 46 43 41 37 38 38 36 34 31 28 28 26 23 22 21 19 18 18 19 20 21 20 19 19 18 15 13 10 7 5 4 2 2 4 6 8 9 10 12 14 16 18 19 20 22 22 24
36 38 49 47 49 43 41 42 38 37 34 33 32 29 25 24 22 22 21 20 20 21 24 24 20 19 18 17 15 12 10 7 5 5 6 7 10 12 14 15 15 16 18 20 22 24 25 26 28
39 38 39 46 50 49 45 41 40 40 37 36 35 31 27 25 26 24 22 20 21 22 23 24 23 19 16 15 13 11 9 8 8 9 10 12 14 15 16 18 19 20 22 24 25 27 29 29 30
34 38 35 36 48 54 47 40 44 44 41 38 36 35 31 30 27 25 24 23 24 25 24 23 21 20 18 16 14 12 12 12 12 13 14 16 17 17 18 20 21 23 24 26 28 29 30 30 31
36 32 41 34 39 47 45 44 46 45 44 39 39 39 37 32 29 30 28 26 26 26 25 25 23 21 19 17 17 17 17 16 16 17 18 19 19 20 21 22 23 25 27 28 29 30 30 31 32
36 35 41 35 29 40 42 42 46 48 47 43 41 41 39 35 37 32 30 28 27 27 27 27 26 25 22 21 21 21 20 19 21 22 21 22 22 23 24 24 25 27 28 29 29 31 31 33 33
39 38 38 37 42 34 44 44 50 53 50 48 45 45 43 41 37 35 33 31 29 29 29 28 27 25 26 25 24 23 23 22 23 24 25 24 25 25 26 27 28 29 31 32 33 32 33 35 36
39 32 37 40 43 37 41 48 53 55 53 52 49 49 49 45 40 37 36 35 34 31 30 31 30 29 28 27 26 25 25 26 26 26 26 26 25 26 28 29 30 31 34 36 37 36 36 37 38
45 38 40 42 43 44 42 51 54 57 56 54 52 52 49 47 42 40 37 35 35 35 34 32 31 30 29 29 28 27 28 27 28 27 27 26 27 28 30 32 34 35 36 36 38 39 40 41 41
44 48 46 46 46 42 44 52 54 61 61 57 54 53 49 46 43 42 41 40 39 36 34 33 33 31 31 31 30 28 28 29 30 28 29 29 29 30 32 34 36 37 39 40 40 42 42 42 44
52 43 50 48 52 43 38 46 49 62 59 56 53 52 50 47 45 45 44 42 39 37 36 36 34 33 34 34 34 31 31 32 31 31 32 31 32 33 35 38 39 41 42 43 42 42 43 45 47
49 52 47 51 49 47 43 49 43 58 61 56 54 53 52 51 50 49 47 43 42 40 40 39 38 36 37 37 37 36 34 34 33 33 35 34 35 37 39 41 43 44 45 44 43 44 45 47 49
53 55 54 48 57 53 48 39 37 43 66 55 53 53 52 51 49 47 45 44 44 43 43 42 42 40 39 39 40 39 38 36 36 37 37 38 40 41 43 45 46 47 45 43 43 45 48 49 51
55 56 48 46 46 50 46 35 37 36 51 59 52 51 50 52 49 46 45 45 45 45 45 45 45 43 43 41 41 41 41 40 39 40 40 41 43 45 46 48 48 48 46 45 45 47 49 52 56
50 47 49 50 56 54 50 44 41 42 42 56 57 54 47 50 49 47 46 47 47 48 49 48 47 45 45 44 44 44 44 43 43 42 43 45 47 48 49 50 49 47 45 47 47 48 52 56 59
48 51 53 52 49 48 49 47 42 44 42 45 55 48 47 49 49 49 49 49 49 49 49 49 49 49 48 47 47 45 44 44 44 45 46 48 50 51 52 51 47 45 45 47 50 53 56 60 62
43 44 45 46 44 50 48 45 47 47 44 40 44 42 43 45 49 51 51 51 51 50 50 50 50 49 49 49 47 46 46 45 47 48 50 51 52 53 51 46 44 46 46 49 54 56 59 62 64

GFSSGP_500_spd_111.txt.gz
Wind_Speed
26 26 22 20 19 16 15 18 20 18 16 14 10 5 1 0 3 3 3 4 3 1 4 6 8 7 6 8 9 13 8 9 6 9 9 11 11 10 7 4 3 4 5 5 6 7 8 9 10
26 26 22 22 20 15 15 18 20 17 16 13 9 6 3 1 1 1 2 5 4 4 8 9 8 10 15 16 15 13 13 9 8 9 13 14 12 8 5 4 4 5 5 6 8 9 9 10 11
27 27 23 23 24 20 16 20 18 16 15 12 9 7 4 3 4 2 2 6 5 8 9 9 12 17 20 18 16 16 14 11 13 22 17 13 9 7 6 6 5 5 6 7 9 10 11 11 12
28 29 23 23 21 17 18 18 17 15 16 12 8 7 5 4 5 3 2 8 8 11 11 10 16 19 21 18 16 14 13 14 13 15 13 10 8 7 7 6 5 6 7 8 9 10 12 12 13
29 29 25 22 19 16 19 16 16 15 14 10 8 6 6 5 5 4 5 10 12 15 15 17 19 18 17 16 14 12 10 15 12 12 10 7 9 7 7 7 6 7 8 9 11 11 12 12 13
31 29 25 23 19 17 16 15 16 15 13 9 8 6 6 6 6 5 7 13 15 13 16 18 20 16 13 15 12 11 10 15 11 8 9 9 8 8 7 6 7 8 9 8 10 11 11 11 12
31 28 26 26 18 18 16 16 17 16 13 9 9 6 5 8 8 7 9 14 16 14 14 16 14 12 10 11 14 14 13 13 10 10 10 9 8 7 7 8 8 7 7 8 10 11 11 12 12
32 28 28 25 18 18 18 18 19 16 13 11 10 8 6 6 9 10 10 11 17 15 13 14 13 13 11 10 10 11 14 12 11 11 9 9 9 8 7 6 6 6 7 10 10 10 10 10 11
34 31 29 26 19 20 20 21 21 18 15 13 11 11 9 7 7 10 12 13 15 12 11 13 13 14 13 11 9 10 12 11 11 10 9 8 8 6 5 7 7 7 8 8 9 10 11 11 12
36 34 29 31 24 22 25 24 23 20 18 16 15 13 10 10 9 10 11 13 14 11 10 12 11 13 11 12 11 11 10 11 11 10 9 6 5 5 6 6 6 6 7 8 9 10 12 13 14
35 35 33 35 32 23 24 24 24 22 21 21 18 16 13 12 12 12 11 9 11 13 11 11 13 13 13 13 13 12 13 11 9 9 7 8 6 5 5 6 6 6 7 8 9 11 12 14 16
31 33 37 38 37 29 26 28 26 25 27 22 19 16 14 14 14 14 14 14 14 14 14 13 14 17 15 15 15 14 12 11 10 9 8 5 5 5 4 4 6 7 8 10 11 13 15 16 18
33 32 39 39 40 35 28 30 31 29 28 24 22 21 19 17 14 14 13 13 15 16 16 16 16 16 18 18 15 14 13 13 10 8 6 3 2 3 5 6 7 9 11 12 14 15 16 18 21
24 23 38 43 41 39 32 33 33 32 29 26 25 25 23 21 19 16 16 16 16 16 17 19 18 18 18 17 17 16 14 11 8 6 3 2 2 4 5 7 9 11 12 14 15 17 19 20 22
29 20 31 37 44 41 37 33 32 33 33 29 29 28 26 24 21 21 21 21 20 19 18 20 22 20 17 16 16 15 14 11 8 5 4 6 8 9 10 11 12 13 15 16 18 19 20 22 23
34 31 26 38 41 41 39 35 34 36 34 33 32 31 28 26 27 26 24 21 20 20 22 23 22 21 20 18 14 13 11 9 8 8 9 11 12 12 13 14 15 16 17 19 20 21 22 22 24
38 34 23 29 35 43 46 40 39 40 38 36 35 33 33 31 30 28 26 24 23 24 23 25 24 22 20 19 18 15 13 12 12 12 14 14 15 16 15 16 18 18 20 20 21 23 24 24 26
36 30 22 25 29 34 46 46 45 44 42 39 40 38 36 33 33 33 31 29 27 27 26 27 26 24 22 20 18 17 18 17 16 17 18 18 19 19 18 19 21 22 22 23 24 26 28 28 29
36 33 28 24 30 33 34 37 44 44 46 44 42 41 39 37 41 37 34 31 29 28 28 28 29 29 27 25 24 22 22 21 20 21 21 20 21 21 21 23 24 25 25 25 26 29 30 29 30
34 33 31 32 33 35 33 23 33 47 47 48 46 45 43 43 43 39 35 32 31 32 31 31 32 32 31 28 28 26 24 24 25 25 24 23 23 24 24 26 26 27 28 28 30 32 33 32 32
45 40 33 34 37 36 34 39 25 36 49 48 52 48 47 47 46 43 38 36 37 34 34 34 34 34 33 32 30 28 27 28 27 26 26 25 25 27 28 28 28 29 31 31 33 34 36 36 36
43 43 46 34 38 36 35 42 34 27 43 49 51 50 49 49 48 46 41 38 36 37 38 36 35 34 33 32 31 30 29 29 29 27 26 26 27 29 29 29 30 31 33 35 36 38 39 39 39
41 40 41 46 44 38 35 43 34 33 33 50 54 55 51 51 50 48 44 42 42 42 39 38 37 35 35 35 34 32 30 30 31 29 28 29 30 30 32 32 33 33 36 37 39 41 42 41 41
41 40 41 42 44 46 40 42 39 27 29 40 50 60 55 51 50 49 49 48 45 42 40 39 39 37 37 37 35 34 33 33 34 32 31 32 32 33 33 34 36 37 39 41 42 44 45 44 43
49 43 43 44 45 42 38 48 39 31 27 34 45 58 58 51 51 52 53 49 45 43 42 41 41 40 40 39 38 37 36 36 36 34 34 36 36 36 36 38 40 41 42 44 46 46 45 45 45
53 54 47 44 42 44 46 37 38 35 38 41 40 52 59 53 49 50 50 49 46 45 46 46 45 43 43 42 41 40 40 39 40 37 37 38 40 40 40 41 42 44 46 48 49 48 47 45 46
53 53 53 51 49 48 49 45 43 43 38 32 36 41 53 51 48 47 50 48 48 47 48 47 48 47 45 45 45 44 43 44 42 41 40 40 42 42 43 44 46 48 49 50 49 49 47 47 48
51 49 48 49 50 52 53 50 45 32 31 33 33 35 47 50 47 48 51 51 50 50 50 50 50 49 48 46 48 48 47 46 45 45 43 42 43 45 46 48 50 51 52 52 49 47 46 47 48
48 51 52 51 50 51 51 51 49 41 41 41 42 40 39 51 53 49 52 54 54 54 51 51 51 51 51 50 49 50 49 48 47 47 46 45 46 48 50 51 52 54 54 52 48 47 48 47 50
46 43 43 45 44 45 43 45 49 46 40 43 41 42 42 36 48 57 51 53 55 56 55 54 54 53 51 50 50 50 49 48 48 48 49 49 50 52 52 54 54 55 52 50 48 48 47 51 53

GFSSGP_500_spd_114.txt.gz
Wind_Speed
29 26 23 20 19 16 16 14 13 14 14 16 15 11 10 7 3 4 7 6 2 3 5 6 8 6 5 7 11 15 10 8 6 7 8 11 11 9 5 3 4 6 7 7 7 8 9 9 10
29 27 23 20 19 18 16 15 14 13 14 15 15 12 9 6 2 3 6 5 2 5 8 9 8 7 7 9 13 16 10 6 6 9 10 12 10 6 5 5 6 7 7 8 9 8 9 11 12
29 26 23 22 21 20 17 16 15 12 12 13 14 12 10 7 3 1 3 2 3 9 10 11 12 13 14 16 17 15 10 7 6 15 13 12 8 5 5 6 6 9 9 9 9 10 12 12 12
32 26 22 23 22 23 21 19 15 12 12 12 13 12 10 8 5 3 1 5 7 10 10 12 13 18 20 19 16 13 12 10 12 14 13 9 7 5 6 7 9 10 10 11 13 13 13 13 13
30 26 24 21 22 21 21 19 16 13 11 11 10 10 9 8 6 6 4 8 11 11 10 17 19 20 20 19 16 13 13 12 12 11 10 7 6 6 8 9 9 10 12 12 11 11 12 13 14
29 25 22 23 21 22 21 19 16 12 10 11 10 9 8 7 6 8 8 12 13 11 13 19 19 17 15 14 12 12 12 14 12 9 7 8 7 9 9 8 9 10 10 10 11 11 13 13 13
27 24 23 22 22 21 19 18 15 12 12 11 9 9 7 7 8 10 10 15 13 12 12 16 15 14 13 8 7 6 11 12 8 7 9 9 9 9 9 8 8 9 10 11 11 12 12 11 11
29 26 23 20 22 18 18 20 17 14 15 11 10 11 8 6 7 11 12 17 14 11 11 13 11 10 12 10 7 2 5 7 9 11 11 10 10 9 6 6 7 9 10 10 10 10 10 9 11
31 30 24 21 25 20 20 21 20 17 16 12 13 11 9 7 8 12 14 17 15 12 11 12 13 12 13 11 8 7 9 9 8 10 11 11 9 7 5 5 7 7 7 8 8 8 8 9 10
35 29 27 25 26 22 18 19 21 17 16 17 17 14 11 10 9 11 13 16 17 16 13 13 14 13 13 12 10 12 10 9 10 11 11 9 7 6 5 4 4 4 4 5 5 6 8 9 11
38 29 28 28 28 25 19 19 21 19 20 21 16 14 14 13 12 12 14 13 14 14 16 13 14 14 13 13 14 12 12 13 12 12 10 9 7 5 4 3 3 2 3 4 6 8 10 13 14
34 33 28 31 31 30 25 18 21 23 24 21 18 16 16 15 14 15 16 17 14 14 14 14 13 15 14 15 16 15 15 15 13 12 11 9 7 5 2 0 0 2 4 6 7 10 11 13 15
27 42 38 32 36 32 30 25 24 27 26 23 20 21 19 16 14 14 13 13 14 14 15 16 16 16 15 16 16 18 16 15 15 13 11 9 6 4 3 3 3 4 6 7 9 10 12 14 16
29 24 26 37 35 37 33 31 27 28 27 25 23 24 22 19 18 16 16 17 16 16 16 18 18 19 20 19 18 17 17 17 15 13 10 6 3 3 5 6 7 8 9 10 11 12 14 16 18
28 31 26 32 36 41 40 37 28 31 31 28 28 26 24 22 19 21 20 20 20 20 18 19 20 21 21 21 19 18 16 14 11 8 5 5 6 7 8 10 11 12 13 14 15 15 17 19 21
34 35 31 24 30 42 41 35 34 33 33 31 31 29 27 27 26 24 23 21 19 18 20 20 21 22 22 22 20 18 15 13 11 10 9 10 11 12 13 14 14 15 17 18 19 19 20 22 24
41 38 28 25 23 34 40 38 37 35 34 34 32 33 32 31 28 27 26 24 22 21 20 22 23 24 23 22 22 20 18 16 15 14 14 14 15 17 18 17 17 19 20 22 23 22 23 24 25
46 36 27 27 25 25 34 35 38 38 36 36 36 36 35 32 32 33 32 29 27 25 24 24 25 26 25 24 22 20 20 20 19 19 19 18 20 21 21 20 21 23 24 25 25 25 27 27 28
36 32 33 28 32 30 24 34 33 40 41 39 39 39 38 36 39 37 35 33 31 28 26 26 27 29 28 26 25 24 25 23 22 22 22 23 25 25 24 23 24 27 27 27 27 28 29 30 32
41 39 37 35 37 30 25 21 31 35 38 43 41 43 41 41 42 39 38 36 33 32 30 31 31 32 32 31 31 30 30 27 27 26 26 28 29 27 27 27 28 29 28 29 29 30 32 33 35
42 36 33 35 34 36 31 27 21 23 20 34 44 42 45 43 45 43 42 41 39 36 34 35 36 36 36 35 35 33 32 30 30 31 31 31 29 30 30 31 30 31 31 31 32 34 34 36 38
51 49 42 31 33 38 35 37 28 24 24 25 27 41 44 48 49 48 46 44 40 38 41 40 39 37 37 37 36 35 35 34 34 35 34 33 32 32 32 32 33 32 33 35 35 37 38 38 40
48 46 37 42 44 40 34 42 27 24 24 25 24 22 33 49 53 52 49 45 45 47 44 43 42 40 38 37 38 38 37 38 39 37 36 35 35 35 34 34 35 35 35 36 38 39 40 41 43
45 43 39 40 45 51 44 44 37 24 19 23 24 26 31 39 51 54 52 50 50 50 48 45 42 42 42 41 41 41 41 40 41 39 38 37 37 36 36 36 36 38 38 40 41 42 43 45 46
48 46 45 43 45 50 44 45 50 36 31 30 25 21 23 32 48 55 55 55 52 50 50 48 46 46 46 45 45 44 44 43 43 41 39 38 40 40 39 40 39 40 40 42 44 46 47 48 50
48 47 48 48 47 45 45 45 46 33 25 28 28 29 29 30 35 52 59 58 56 51 52 50 48 48 49 49 47 46 46 45 45 43 43 41 41 43 42 42 43 43 43 45 47 49 51 53 53
53 52 51 52 51 49 52 51 46 41 40 36 34 35 35 35 32 44 55 56 57 53 52 52 51 50 51 51 51 49 48 47 47 47 47 45 43 43 44 46 46 47 48 49 50 51 53 55 56
55 52 51 51 51 51 49 49 49 48 43 39 34 31 32 34 32 35 48 54 56 55 55 55 54 53 53 54 53 53 52 51 49 50 49 49 48 47 46 48 50 49 51 53 53 55 56 56 55
56 56 55 54 54 54 50 49 45 45 48 47 47 41 37 36 36 37 36 49 55 57 57 56 55 56 55 55 56 56 54 52 52 53 52 52 52 49 50 50 53 53 54 56 56 57 57 56 53
52 51 52 56 54 52 50 46 44 45 46 48 47 47 42 39 41 43 42 39 55 54 57 55 58 59 57 57 57 57 57 56 55 54 54 54 53 52 53 53 54 56 57 58 58 58 56 53 52

GFSSGP_500_spd_117.txt.gz
Wind_Speed
32 30 28 23 19 19 18 16 13 15 14 14 13 13 11 11 7 7 9 9 6 3 8 8 8 6 7 8 15 13 10 9 7 7 7 8 8 6 5 5 7 7 8 10 10 11 10 9 10
32 31 26 24 21 20 20 16 15 15 13 13 12 13 11 10 7 7 9 9 4 5 8 9 9 7 6 7 15 13 8 6 7 9 8 8 6 6 5 6 8 8 9 10 10 10 10 12 13
30 31 28 24 22 23 19 16 15 16 13 12 13 12 11 9 6 5 6 6 2 7 8 9 9 8 10 12 18 11 7 5 9 9 10 8 5 5 6 8 9 10 10 11 11 12 13 13 14
30 31 26 25 24 22 20 18 17 17 14 12 12 12 10 7 6 5 3 2 2 8 6 8 8 11 16 16 13 9 8 6 10 10 9 7 7 8 9 10 11 10 11 11 11 12 13 13 14
32 30 27 23 24 22 20 21 20 19 15 12 11 11 8 6 6 6 4 3 4 7 7 8 12 15 17 17 12 9 8 8 11 10 8 8 9 10 11 11 10 10 10 10 11 11 12 13 14
33 32 27 24 26 21 20 21 20 19 16 12 10 9 8 5 6 8 7 8 7 9 10 11 17 17 14 11 10 5 5 5 9 10 8 9 10 11 11 9 9 9 9 10 10 12 12 12 11
33 31 27 27 26 21 21 21 21 18 16 11 9 9 7 6 7 10 10 11 8 12 12 13 15 17 13 9 6 3 3 7 6 6 8 11 11 11 9 8 8 8 9 10 10 9 9 9 9
28 29 29 25 23 24 22 20 19 17 15 11 10 11 7 5 8 11 13 12 10 11 12 12 14 14 13 9 7 6 8 5 5 8 9 11 11 9 7 7 7 8 8 8 7 6 6 7 8
28 31 28 27 24 24 21 18 17 17 15 12 14 12 8 6 9 12 14 15 12 10 12 10 11 12 11 11 9 7 7 8 9 9 10 11 9 7 7 6 6 6 6 5 4 4 5 6 8
37 32 29 28 25 23 22 17 15 17 15 16 14 12 10 8 8 11 14 18 15 13 12 11 12 12 11 10 9 10 10 10 10 11 12 10 8 6 5 5 4 3 2 2 3 4 5 7 8
36 31 33 29 27 25 23 18 17 16 19 17 14 14 13 10 9 11 15 16 15 13 12 14 13 14 13 12 11 12 12 12 13 14 11 10 8 7 5 3 1 1 0 1 3 5 7 8 9
35 35 32 27 30 27 26 21 18 21 19 16 17 16 15 12 11 11 14 18 19 16 14 15 16 15 14 12 13 13 13 14 15 14 13 11 9 7 5 3 3 3 3 5 7 9 11 12 12
35 38 33 32 30 32 30 27 21 20 19 17 19 19 17 15 14 12 13 17 18 18 16 16 15 15 14 15 15 14 16 17 15 14 13 12 10 7 3 3 5 5 7 9 10 12 14 16 16
31 31 32 35 31 34 32 32 27 24 21 20 22 22 20 18 15 16 16 18 18 19 19 17 17 17 18 17 16 17 18 17 16 15 13 10 6 4 5 6 8 9 10 11 13 15 16 18 19
29 30 30 37 37 36 38 34 29 29 27 24 24 24 23 21 19 21 18 19 20 20 20 18 18 19 19 18 18 19 18 17 15 13 9 7 8 8 9 10 11 12 13 15 16 18 20 21 22
35 37 35 29 24 29 37 35 35 36 34 29 28 28 26 24 24 21 21 20 21 18 19 20 19 19 19 20 20 20 19 17 15 13 11 12 12 12 13 15 15 16 17 19 20 21 22 24 26
42 40 33 34 24 21 26 36 44 40 38 33 33 30 29 28 27 25 24 24 22 20 19 20 20 20 20 21 21 20 20 19 18 18 17 16 16 17 18 20 20 20 22 24 24 25 26 27 28
46 38 30 28 28 27 29 25 36 42 40 36 34 33 31 30 29 31 29 27 26 23 22 21 20 20 21 22 21 21 21 21 20 19 18 19 20 22 24 25 25 25 26 28 27 28 30 30 32
44 40 38 35 31 31 29 20 28 38 39 37 33 34 33 31 35 33 31 30 29 26 26 25 24 25 24 25 24 25 26 25 24 23 23 24 25 27 28 28 28 29 30 30 30 30 31 32 34
46 45 36 39 37 33 30 20 18 24 29 37 37 37 35 36 36 34 34 34 33 30 29 29 28 29 28 29 30 30 31 29 28 28 28 29 30 30 30 31 32 34 34 34 33 33 33 34 37
48 49 42 39 34 35 32 27 24 16 19 23 31 35 36 40 38 38 37 36 37 34 33 34 34 34 32 32 35 35 34 32 33 34 35 33 34 34 34 33 35 36 37 37 36 37 37 37 39
49 48 44 40 38 40 39 33 29 23 19 23 21 14 20 35 42 42 41 39 38 37 39 38 39 39 36 37 36 37 38 38 38 39 38 37 37 37 38 37 36 37 38 38 38 38 40 40 42
49 47 46 40 38 44 41 44 31 31 25 21 20 23 19 19 29 38 42 43 42 43 43 44 43 43 41 41 40 40 41 40 41 42 41 41 40 40 41 41 40 39 39 40 40 40 41 43 43
50 47 45 47 49 45 40 45 39 27 22 22 17 20 24 25 23 31 41 45 46 47 47 48 47 46 45 45 45 44 43 44 44 45 44 44 44 42 43 44 43 42 42 43 43 43 44 45 47
50 45 47 49 52 54 50 48 46 31 26 25 29 29 29 26 27 21 31 39 45 51 52 51 50 49 48 48 48 48 49 48 47 48 47 47 46 44 45 46 45 45 45 44 45 46 47 48 49
55 53 50 49 49 49 52 53 50 37 35 32 33 31 32 35 31 32 30 30 37 45 50 52 52 52 52 52 51 52 51 51 51 51 51 49 48 47 47 48 48 46 47 48 48 49 50 51 53
55 52 49 49 48 47 50 47 48 42 36 38 36 33 33 30 31 33 38 39 36 40 44 53 53 54 54 53 56 56 53 52 52 53 54 51 50 50 49 50 49 49 50 52 52 52 53 54 55
54 52 51 50 50 50 49 49 46 46 41 39 41 42 41 44 45 41 39 37 37 37 39 42 55 56 55 57 59 59 56 55 56 57 56 54 53 51 51 52 52 52 53 54 56 56 55 57 58
55 56 56 55 54 53 50 47 41 40 42 41 41 43 44 45 48 50 43 37 35 33 34 33 39 55 58 60 60 60 59 57 58 60 59 57 57 56 56 55 55 54 55 56 58 58 59 60 59
60 58 55 53 52 52 53 48 45 43 45 46 46 45 45 45 48 50 51 50 46 43 41 39 37 44 57 57 58 60 60 60 59 59 59 59 60 60 60 59 58 56 56 58 61 61 60 60 59

GFSSGP_500_spd_120.txt.gz
Wind_Speed
28 27 25 24 20 18 21 15 16 13 12 14 13 13 12 11 8 7 10 12 8 1 3 5 4 4 7 10 12 9 9 11 10 9 7 7 8 8 8 8 10 10 12 12 12 13 14 15 14
31 29 27 24 20 20 26 14 17 13 12 14 13 12 11 10 8 6 9 10 6 2 7 7 7 6 5 8 16 11 7 7 7 9 8 9 7 7 7 9 11 11 11 11 14 14 13 13 14
31 30 29 25 20 24 23 17 13 13 13 15 14 11 10 9 6 4 6 7 5 4 7 6 3 4 6 11 15 10 7 6 7 7 8 9 7 8 10 11 11 11 12 13 13 12 13 13 14
33 31 29 26 24 25 22 20 16 14 14 16 14 11 8 7 4 2 3 4 2 3 6 5 5 6 12 13 15 8 5 5 6 6 11 9 8 10 12 12 12 11 11 11 12 12 12 12 12
37 30 30 28 25 24 21 20 18 16 16 17 15 10 8 6 3 3 1 2 2 3 6 7 10 13 16 16 13 8 7 9 10 9 8 9 10 12 13 12 11 10 10 11 11 10 10 10 11
38 35 30 25 25 26 21 19 19 18 16 17 15 9 6 8 4 3 3 4 4 6 10 12 16 15 14 12 9 9 8 6 7 8 9 10 12 13 13 10 10 9 9 9 10 10 9 9 9
36 36 31 29 27 27 20 19 19 18 16 16 13 8 5 7 6 5 6 7 5 8 12 17 17 17 12 9 8 6 7 5 5 6 8 10 12 12 11 10 9 8 8 8 8 7 7 7 9
34 33 32 30 28 29 19 19 19 18 16 15 12 7 5 5 5 5 7 9 7 10 13 17 15 16 11 8 6 7 12 8 6 6 8 10 11 11 11 10 8 7 6 6 5 5 5 6 7
35 35 32 30 27 28 22 20 19 18 16 15 11 6 5 4 6 6 8 10 10 10 13 14 14 13 12 9 6 7 10 8 7 8 10 11 11 10 10 8 7 5 4 2 2 3 3 4 6
34 31 29 31 31 29 21 21 18 16 16 15 11 7 6 5 5 7 10 13 13 12 12 13 13 13 11 10 9 9 10 11 11 11 12 12 10 9 7 7 5 3 2 0 0 2 4 5 7
37 32 29 34 29 26 24 23 18 18 20 14 12 11 8 7 5 6 10 13 14 13 13 12 11 12 12 10 9 9 9 9 11 13 14 12 10 8 7 6 4 3 3 3 4 5 5 7 8
40 38 35 32 29 26 27 24 22 21 18 16 14 14 10 8 7 7 8 13 19 18 15 14 13 12 12 11 9 10 10 9 10 12 12 11 9 7 6 5 3 4 5 6 7 8 9 10 11
37 36 35 34 31 29 28 26 27 21 19 17 16 15 13 11 9 8 10 11 15 18 17 15 15 15 13 12 11 10 10 11 13 14 12 11 9 8 5 4 6 7 8 10 11 13 14 15 16
32 36 34 37 32 28 31 31 26 27 20 18 19 18 16 13 11 11 11 13 14 17 19 16 15 16 17 15 13 13 13 14 15 14 12 10 8 6 6 7 9 10 12 14 15 16 17 18 19
34 35 38 38 36 36 32 32 26 32 24 22 21 21 18 16 15 15 12 13 15 15 18 19 17 16 17 16 16 15 15 16 15 14 14 11 8 9 10 10 12 13 15 17 19 20 21 22 23
33 35 36 34 40 33 35 29 30 35 30 28 24 22 21 20 19 15 15 14 14 16 15 17 17 18 18 17 16 16 17 17 16 17 17 15 14 14 14 14 15 17 19 21 23 24 24 26 27
38 40 35 32 26 32 32 25 33 37 32 32 30 25 25 24 20 18 19 17 15 16 16 17 16 19 18 18 18 18 17 17 18 19 18 17 17 17 17 19 20 21 23 25 27 28 27 30 31
45 43 34 28 28 28 23 19 23 27 33 37 36 31 26 25 26 24 23 21 18 17 16 17 17 15 18 18 18 19 21 21 22 23 21 19 21 21 22 23 25 25 27 29 31 31 31 33 33
45 41 38 38 34 32 30 27 24 26 30 40 41 37 31 25 30 26 26 24 21 19 18 19 20 21 20 21 22 24 25 25 25 26 24 23 26 26 27 28 28 28 31 32 32 34 34 35 36
46 44 42 42 38 34 31 25 26 25 23 29 34 35 30 27 28 27 28 26 25 24 23 22 23 23 24 24 25 27 29 29 29 28 28 30 31 30 31 32 32 32 33 35 35 36 37 37 38
39 38 44 44 40 37 36 32 28 22 19 23 26 27 29 30 29 29 31 29 30 27 27 28 28 29 27 28 28 30 32 32 32 33 35 35 33 33 35 36 37 38 38 38 38 38 38 38 39
41 46 46 46 42 40 37 38 32 28 19 14 13 12 15 20 22 27 28 32 31 32 32 33 32 33 32 32 33 32 32 33 36 38 39 39 39 38 39 41 40 41 42 41 42 42 42 41 43
51 52 48 46 45 42 43 41 26 32 22 14 16 18 21 20 21 25 27 30 36 38 36 37 38 36 37 36 35 35 35 36 39 40 42 42 43 42 43 43 44 44 43 43 44 45 44 44 45
51 47 47 46 45 48 45 43 33 30 25 25 23 20 22 22 23 23 23 23 30 34 37 39 40 41 41 42 41 41 41 41 42 44 45 45 46 46 45 46 47 46 46 46 46 46 47 47 47
55 51 49 49 48 50 46 49 42 30 26 20 20 24 22 17 18 21 25 25 24 26 31 37 40 44 46 46 47 46 45 47 46 48 47 47 48 49 48 49 48 48 49 48 49 50 50 50 50
53 47 51 56 54 50 47 50 48 30 30 27 27 27 27 28 30 29 29 29 28 25 26 26 31 37 41 48 51 49 50 51 50 50 50 51 51 51 52 51 50 51 51 51 52 52 53 54 53
62 63 50 48 48 49 51 48 45 36 34 32 30 32 34 34 33 31 30 29 30 27 24 28 31 33 35 39 45 51 52 53 54 53 54 53 53 53 54 54 54 53 53 53 54 55 55 56 57
59 57 54 53 53 50 51 51 47 43 34 33 33 33 36 37 36 36 37 37 36 36 38 39 34 33 36 36 39 45 55 55 54 56 55 56 57 56 55 57 58 56 56 56 57 58 57 58 59
62 62 60 55 53 53 52 51 48 43 41 35 35 36 38 38 38 39 39 40 41 43 43 43 41 37 37 33 34 34 38 53 58 56 54 58 59 58 57 57 60 59 59 59 59 60 59 59 59
64 59 56 54 53 52 51 47 46 45 45 45 42 41 41 42 43 44 45 45 45 46 47 47 45 45 44 42 44 43 39 41 54 60 56 59 58 58 60 59 59 60 62 61 62 62 59 60 60

GFSSGP_500_spd_123.txt.gz
Wind_Speed
27 25 23 19 17 18 19 18 12 15 12 12 13 14 15 14 11 9 10 4 7 5 8 7 6 9 9 8 10 14 14 13 10 7 5 8 8 7 7 8 11 11 12 12 14 16 16 16 15
29 27 24 21 19 21 19 15 14 14 10 12 12 12 13 12 9 6 8 9 7 5 6 5 5 5 7 10 11 9 10 9 8 5 8 9 7 7 8 10 11 12 12 13 15 15 14 14 13
31 30 26 22 24 25 21 13 16 14 11 11 11 12 12 11 8 4 6 8 8 5 4 4 3 3 7 13 13 8 8 8 7 9 11 9 7 8 10 11 11 13 13 12 13 13 12 11 11
33 30 29 25 27 24 20 16 17 15 12 11 11 9 9 10 7 3 4 6 7 6 2 2 5 6 9 14 14 10 8 7 9 9 9 8 8 9 10 11 12 12 12 11 11 11 10 9 10
33 30 29 27 28 23 23 18 17 15 13 11 10 9 7 7 6 1 3 5 6 7 7 8 10 15 14 17 13 11 11 10 11 11 8 8 9 10 11 12 12 11 10 9 9 9 8 8 9
30 33 30 26 27 29 23 22 17 15 14 10 11 9 7 4 5 1 2 3 5 8 11 15 15 16 14 12 11 14 15 13 11 9 9 9 10 11 11 11 11 10 9 8 7 7 7 7 9
31 33 32 31 28 26 22 24 20 14 13 11 10 7 6 3 3 1 3 3 3 8 14 17 19 16 14 11 8 8 11 10 9 9 9 11 11 10 9 10 9 8 7 7 6 5 5 6 6
32 33 33 32 29 28 25 24 21 14 16 10 9 9 5 1 1 1 4 5 5 7 17 17 19 16 12 9 7 7 10 8 7 7 8 9 9 9 9 9 9 7 5 4 3 3 3 3 5
30 33 31 32 32 31 29 24 20 17 13 11 9 9 7 3 2 2 6 8 7 8 15 18 14 13 12 9 7 10 11 9 9 9 9 10 10 10 10 8 6 5 3 2 1 1 2 4 4
33 33 29 35 34 33 26 26 22 18 16 11 11 11 9 5 3 2 6 11 10 10 12 16 15 11 10 8 6 9 11 10 9 8 10 12 11 10 8 7 6 5 3 2 3 3 4 5 6
37 33 35 33 31 32 29 27 24 21 18 13 14 13 10 7 5 3 4 9 11 10 12 13 15 13 10 8 6 7 9 9 9 9 11 12 11 9 8 7 5 4 3 4 5 6 8 9 9
33 35 31 31 31 30 29 26 24 24 20 15 18 16 12 9 7 6 6 7 13 14 13 13 12 12 12 11 9 7 7 7 9 9 11 12 11 8 8 7 5 6 6 8 9 9 10 12 13
33 34 34 31 29 30 29 29 27 25 22 18 21 17 14 12 9 8 7 7 10 14 14 14 13 12 11 11 10 9 10 10 10 12 14 12 12 10 8 6 7 9 9 11 13 13 14 16 17
31 30 35 35 35 34 33 30 26 28 24 20 22 18 16 14 12 10 7 7 8 11 14 15 14 16 14 13 13 13 13 12 13 15 16 14 13 11 9 10 11 11 12 14 16 17 19 19 20
35 35 35 37 36 34 35 32 25 31 26 23 22 19 16 16 14 11 9 8 8 8 11 14 14 14 16 14 14 14 14 15 16 16 16 15 15 13 13 12 12 13 14 16 18 21 22 22 24
38 38 39 35 34 35 37 30 26 34 28 24 22 19 18 17 15 12 11 10 10 8 9 12 13 14 17 16 14 13 15 17 17 16 16 17 16 15 16 16 15 17 18 19 21 23 26 26 27
43 41 39 35 33 35 39 28 33 33 29 27 29 26 23 19 15 15 14 13 12 10 9 11 13 12 15 17 16 16 17 18 18 20 20 19 19 18 18 18 20 22 23 23 24 27 28 29 30
48 42 34 36 29 30 29 30 34 33 32 33 32 29 27 24 17 18 17 15 14 13 11 11 13 12 14 12 15 17 19 21 21 21 21 22 21 22 22 23 25 27 27 29 30 31 31 32 33
43 40 37 32 31 30 24 25 29 33 25 27 32 33 31 27 25 19 19 19 16 13 15 14 15 16 14 15 16 18 21 21 22 23 23 24 26 27 27 27 28 31 32 33 34 36 37 36 37
44 42 42 37 36 34 33 29 31 28 22 24 25 30 33 32 28 23 20 20 21 18 17 17 17 18 18 19 21 21 23 23 23 24 25 29 32 31 30 32 32 35 36 37 37 38 38 39 40
49 45 40 41 39 36 35 35 35 29 25 22 18 22 27 30 28 26 22 20 22 20 21 20 22 23 22 22 23 23 23 24 26 29 31 32 32 34 34 36 37 37 40 42 41 42 42 41 42
49 39 38 38 42 41 40 38 33 29 26 20 17 17 21 27 28 29 28 26 23 25 27 25 26 28 27 27 25 24 26 28 29 31 33 35 36 37 38 40 42 42 42 43 45 45 45 45 45
48 46 39 39 40 43 43 44 35 35 28 21 21 17 18 20 20 20 21 22 28 30 31 31 30 30 30 31 30 30 29 30 34 36 38 38 39 39 40 42 45 46 47 46 47 47 46 47 48
51 44 43 48 48 45 42 43 38 36 26 26 24 18 17 17 17 19 18 17 16 17 20 31 32 32 32 36 35 35 36 37 37 39 41 42 43 43 44 45 46 47 48 50 49 48 48 50 50
53 45 44 42 46 53 45 45 45 34 30 26 28 27 25 24 21 20 19 15 16 16 15 16 19 23 28 32 35 37 40 42 42 43 44 45 46 46 47 48 48 49 49 51 52 51 51 52 52
54 55 54 54 50 51 51 48 48 32 33 28 29 29 25 20 22 19 18 19 19 19 19 19 20 19 21 23 25 29 34 39 45 48 48 49 48 49 50 52 50 50 51 51 52 51 51 52 53
61 55 51 51 51 50 52 52 51 33 33 34 31 30 28 25 24 25 28 28 27 24 21 21 22 22 21 23 26 28 30 32 35 41 48 51 51 50 51 53 54 53 54 53 53 52 52 54 54
62 57 53 54 56 59 57 54 49 39 31 32 34 34 34 32 30 31 32 33 33 29 28 30 31 32 34 36 37 37 36 35 35 36 38 47 52 52 51 53 53 56 57 58 56 54 54 54 55
66 67 67 62 59 53 48 42 35 35 32 33 34 35 35 36 36 36 36 35 36 35 34 35 36 38 39 40 41 40 39 37 35 34 36 40 47 52 54 54 55 56 58 60 57 54 58 57 54
66 66 65 64 61 62 59 55 51 46 43 39 39 38 40 39 38 38 38 37 38 39 40 40 40 41 41 41 42 42 42 43 45 48 49 47 49 52 54 56 59 57 55 58 60 57 57 61 60

GFSSGP_500_spd_129.txt.gz
Wind_Speed
31 28 25 23 22 19 14 13 12 10 10 8 6 10 10 11 8 9 9 8 6 9 8 8 7 10 8 10 13 14 11 8 6 8 6 6 4 3 5 6 7 7 9 11 10 11 10 10 11
34 30 26 25 24 20 15 16 15 11 11 9 6 10 11 9 8 7 9 8 6 9 7 9 11 12 14 15 17 17 13 11 7 6 7 5 3 3 5 6 7 9 10 9 9 9 9 9 9
37 35 30 27 27 21 19 18 18 12 12 12 7 11 11 10 8 7 7 7 6 7 7 7 12 14 17 16 15 15 14 13 9 9 7 4 3 5 5 6 8 10 9 9 7 7 7 8 8
37 34 32 32 29 23 23 21 19 14 12 12 8 9 11 9 7 4 5 6 4 6 8 10 15 17 16 15 15 14 13 13 12 9 6 3 2 3 4 6 8 7 8 7 6 6 6 7 7
40 37 34 32 28 25 23 23 18 15 14 13 8 8 10 9 6 2 3 5 3 7 10 13 16 18 17 14 14 14 12 11 9 8 5 3 4 4 5 6 6 6 6 5 5 5 6 5 5
39 36 33 32 30 25 26 23 19 15 15 15 8 7 9 9 6 0 1 4 4 9 12 15 16 19 18 14 12 12 14 11 11 8 7 5 5 5 6 5 5 5 5 4 3 3 4 4 3
40 37 34 35 33 28 27 25 21 17 16 14 11 8 8 10 6 2 5 4 5 12 15 16 16 14 16 15 14 14 14 14 12 9 7 5 5 5 6 7 6 5 4 3 2 1 1 1 0
42 38 38 41 36 32 30 26 22 20 17 15 12 8 9 10 6 4 8 6 6 12 16 16 15 13 12 13 14 16 15 13 10 8 6 6 6 7 7 7 5 4 5 4 1 1 2 4 4
46 46 41 42 40 35 33 25 22 20 18 16 14 10 10 10 8 5 9 9 8 15 17 16 18 15 11 9 10 12 12 11 9 8 7 8 7 7 7 7 6 6 6 5 4 5 6 7 8
45 39 40 40 38 34 30 28 24 23 19 17 16 12 13 12 10 7 9 10 9 13 19 19 18 16 12 9 7 12 10 9 8 8 8 8 8 8 7 6 6 7 8 7 8 9 9 10 12
36 30 30 38 37 34 32 29 27 25 22 21 17 16 15 14 12 8 9 12 11 9 17 20 19 16 13 11 9 7 8 8 8 8 8 10 10 9 9 8 8 8 9 10 11 10 11 12 14
32 25 24 34 38 36 36 31 30 29 27 23 19 19 17 16 13 11 9 12 16 16 13 19 19 17 15 13 12 11 11 10 10 12 14 14 14 14 12 11 10 11 12 13 12 12 12 12 14
33 28 27 30 35 34 36 34 33 29 28 25 21 20 18 18 16 14 12 13 18 17 17 16 19 19 16 15 14 13 13 13 13 13 14 14 15 15 15 14 14 13 13 13 13 14 14 15 16
38 34 32 33 36 37 36 34 36 31 31 28 24 22 19 19 18 17 13 14 15 18 19 17 16 15 14 14 14 15 14 14 14 14 15 15 17 17 16 15 15 15 14 14 14 15 16 18 20
40 40 38 35 34 33 38 38 32 34 32 29 25 22 20 19 20 16 16 15 14 16 17 19 17 15 14 15 14 15 14 15 15 16 17 18 19 19 18 17 17 18 18 18 18 20 20 22 24
48 45 40 37 36 37 41 38 30 34 34 31 28 25 22 20 21 19 18 17 15 16 18 17 19 19 17 16 16 16 16 16 17 16 17 19 20 19 18 18 19 20 21 22 22 24 25 26 28
51 47 43 36 37 40 41 32 32 36 34 31 29 28 26 23 22 21 21 19 18 17 15 17 18 18 18 18 17 17 16 17 18 18 20 22 21 21 20 22 23 23 24 25 26 28 30 31 32
52 51 42 36 36 36 38 32 34 35 35 31 35 32 29 24 24 26 24 22 21 19 18 17 17 17 17 16 16 16 16 18 19 20 19 20 21 21 22 23 26 26 26 28 30 32 34 35 35
54 49 40 34 36 39 40 33 37 43 40 36 36 33 27 24 32 29 24 24 22 21 19 19 19 18 16 17 18 19 19 18 18 18 17 18 21 23 23 26 28 29 31 33 34 36 38 40 40
53 48 42 37 40 44 41 32 35 43 40 34 35 33 28 31 35 31 28 26 24 24 23 21 20 19 20 20 21 19 18 16 16 17 18 22 23 22 24 27 30 32 35 36 38 40 41 43 44
55 51 44 41 42 47 44 38 38 39 36 35 38 35 33 31 34 32 33 32 30 25 25 27 27 24 24 23 22 20 19 18 19 20 22 23 22 24 27 29 31 34 36 39 41 43 44 44 45
56 53 47 44 46 50 47 47 39 38 35 33 34 33 31 30 31 33 34 36 34 29 34 30 30 28 27 27 24 23 23 22 24 24 24 26 27 29 29 32 34 35 36 40 43 44 46 48 49
55 53 46 46 48 51 49 54 39 40 36 28 25 26 25 24 25 25 28 29 38 40 37 33 31 30 30 29 28 28 26 27 29 28 28 29 33 34 35 36 39 41 42 43 46 49 49 51 52
54 52 49 48 51 60 52 52 47 42 32 30 31 30 27 26 23 22 20 25 37 43 36 33 30 31 31 32 32 31 30 31 32 32 32 34 36 37 38 41 43 45 46 47 49 51 52 53 55
56 53 56 57 61 60 55 55 54 41 39 35 34 31 29 27 23 23 18 19 21 27 29 31 31 31 33 33 30 28 30 30 30 30 31 32 35 37 39 42 44 46 48 51 52 53 53 54 56
60 60 61 63 61 62 62 61 62 42 40 40 38 35 31 28 23 22 22 19 19 19 21 21 21 21 20 18 16 15 17 19 22 24 28 30 33 36 40 42 45 47 49 51 53 53 56 57 56
56 65 56 59 59 62 64 56 60 43 38 38 37 37 33 30 27 25 27 24 23 20 22 21 20 20 17 17 21 21 23 24 27 29 29 32 36 39 41 43 46 48 50 53 55 54 55 58 59
61 59 65 63 64 62 63 62 60 45 39 37 38 35 33 33 32 28 29 28 26 24 26 27 26 25 24 26 28 29 28 30 32 36 37 39 39 41 42 43 47 48 50 51 54 57 60 64 63
60 66 64 62 64 61 61 66 58 48 41 42 39 38 41 38 35 32 31 29 30 28 28 29 29 29 30 32 33 33 35 38 40 41 42 43 43 44 45 47 48 50 52 55 59 61 63 63 62
66 65 66 68 68 64 63 67 61 54 43 40 41 42 36 36 34 34 33 31 33 32 33 33 33 34 36 36 36 38 41 42 44 44 44 45 45 46 47 49 51 51 52 54 54 54 55 57 59

GFSSGP_500_spd_132.txt.gz
Wind_Speed
33 31 28 27 22 18 14 13 11 9 8 9 11 11 15 15 12 11 11 10 8 9 9 7 7 7 7 11 15 16 14 13 10 8 10 7 5 3 3 4 5 6 9 9 9 9 9 8 9
35 33 31 29 24 19 17 15 13 11 10 8 9 11 13 14 10 8 9 8 7 8 9 10 12 12 9 14 18 15 13 10 10 10 10 7 3 3 3 3 4 8 9 8 8 8 7 7 8
37 36 33 31 25 20 20 17 16 14 12 11 10 10 12 14 9 5 7 8 5 7 8 10 13 16 15 15 18 14 14 10 9 11 8 6 3 3 3 3 6 8 6 6 5 6 6 6 6
39 38 36 32 28 23 22 19 17 15 13 12 10 10 11 11 8 4 5 7 5 7 8 12 14 16 17 16 15 13 12 9 12 10 8 5 5 3 3 5 7 5 5 5 4 5 5 5 5
50 45 42 38 34 27 24 21 16 16 14 13 9 10 10 11 9 4 3 5 3 8 12 15 17 17 16 15 14 12 11 10 10 8 6 4 3 4 3 5 3 3 3 3 2 3 3 4 3
43 49 41 39 35 30 28 24 18 18 15 14 10 10 10 11 8 4 1 2 3 9 14 16 17 13 13 14 13 11 13 10 9 7 4 3 3 3 2 2 1 1 1 1 2 1 1 0 1
36 42 43 39 35 29 29 26 21 19 17 14 10 10 10 11 6 6 2 2 5 8 15 19 17 14 12 12 14 14 13 11 9 7 4 3 3 2 2 2 2 1 1 2 1 2 3 3 4
35 42 42 39 32 29 31 25 23 21 23 16 11 11 9 10 7 5 5 5 7 10 13 17 16 14 10 9 12 14 12 12 9 7 5 3 3 2 3 3 2 2 3 4 5 6 6 6 8
39 42 43 38 31 31 32 27 27 23 23 19 15 12 10 11 10 6 6 8 9 14 16 16 15 13 13 11 8 9 10 10 9 6 5 4 5 5 5 5 3 4 4 5 7 9 9 9 10
38 39 40 39 34 34 35 31 31 25 24 21 17 14 12 12 12 9 7 10 11 16 17 16 17 16 13 11 10 8 8 8 7 6 5 5 6 7 7 8 6 6 6 7 9 10 11 12 12
40 37 40 41 42 39 39 35 32 29 27 24 18 16 14 12 14 13 9 12 13 13 19 18 18 16 14 12 11 13 11 8 4 6 6 8 11 12 11 10 10 9 10 11 11 10 11 12 14
44 38 41 41 42 44 40 37 34 30 31 24 21 18 16 15 15 14 12 12 17 18 21 21 21 18 15 14 14 14 13 12 11 11 11 10 11 12 12 12 12 12 12 12 12 11 11 13 14
47 40 38 35 35 40 40 37 36 31 31 26 23 22 19 18 16 15 15 14 17 18 19 23 23 21 18 16 15 14 14 14 12 12 12 12 13 14 14 14 14 15 15 15 14 13 12 13 16
45 45 33 30 28 31 33 34 38 34 31 29 26 24 21 20 18 18 16 15 16 19 20 21 23 23 21 20 18 17 16 15 14 15 14 14 15 15 16 17 16 17 17 17 17 16 16 16 19
45 44 43 28 29 29 30 36 35 32 35 31 29 28 23 23 21 19 18 17 17 18 21 23 23 22 22 20 18 18 17 16 16 16 15 15 15 17 19 19 19 19 19 20 19 19 20 21 22
51 46 49 35 30 29 34 31 29 35 36 32 32 30 26 25 25 19 21 19 18 18 21 24 23 24 23 21 20 20 18 16 17 17 17 17 18 18 20 21 20 21 22 23 22 23 24 25 26
55 52 49 40 36 34 38 30 29 37 36 32 33 31 30 28 25 24 25 22 21 20 19 20 24 26 25 22 20 18 18 18 19 19 19 20 20 20 20 22 22 23 25 25 26 28 29 30 31
56 54 50 42 36 38 38 28 29 35 38 34 35 34 32 28 27 29 27 25 23 22 20 20 22 22 23 22 22 21 20 21 22 22 21 19 20 20 22 23 23 26 27 27 29 32 33 35 36
54 53 51 41 38 42 41 34 31 39 35 39 36 35 31 28 33 33 29 27 25 24 23 23 23 24 23 23 23 24 25 24 21 21 19 18 20 22 23 24 24 25 27 29 31 34 36 39 40
55 54 49 43 42 44 43 38 33 37 37 35 32 33 32 32 34 33 31 29 26 28 26 23 25 24 25 25 26 23 22 20 18 19 19 21 24 23 23 23 25 26 28 31 33 36 38 41 42
56 56 50 45 43 47 45 44 38 37 38 34 33 35 33 33 33 32 32 31 31 27 26 29 30 28 28 27 25 23 22 21 21 22 24 25 23 22 23 25 26 27 29 31 35 37 39 41 43
60 54 48 44 46 49 48 52 44 40 37 35 28 30 31 33 34 35 32 32 33 32 34 33 31 31 29 28 25 25 24 23 25 25 25 26 26 26 27 27 30 32 33 35 38 41 42 45 46
60 56 51 47 48 51 53 58 46 42 40 30 24 28 31 36 39 37 34 32 35 37 39 40 36 33 32 31 28 28 27 28 29 26 28 29 30 30 31 32 34 36 38 39 41 44 46 48 50
58 57 57 50 50 61 52 56 56 43 37 29 27 28 31 34 34 32 31 31 32 35 38 41 42 38 32 30 29 29 32 32 31 32 32 31 33 33 34 36 37 38 39 41 43 45 46 49 51
54 55 57 58 58 61 55 58 58 42 36 35 32 31 30 30 27 26 25 25 26 32 37 41 42 37 35 34 32 33 35 34 32 34 35 35 35 35 36 36 37 38 41 42 44 46 48 50 52
45 47 58 65 61 60 64 63 63 49 34 34 36 32 31 29 29 28 27 25 23 26 27 29 35 36 34 32 32 30 29 29 28 28 30 31 35 36 37 38 40 41 44 46 46 47 48 50 51
50 52 44 58 58 62 66 64 63 55 40 36 33 35 34 32 32 30 27 24 21 20 19 21 27 28 26 26 23 19 17 18 21 26 28 31 34 37 38 40 44 46 47 48 48 47 48 51 53
53 45 51 56 59 61 61 66 65 60 41 37 38 37 34 36 37 32 28 26 26 24 24 24 25 25 25 26 24 22 23 26 28 30 32 36 37 40 43 45 48 48 49 49 51 51 53 55 57
58 56 51 51 59 59 59 64 58 59 49 42 36 35 36 36 38 36 33 30 30 29 27 26 26 28 31 31 30 28 28 32 34 35 38 41 44 46 48 49 48 49 50 51 52 53 54 52 51
66 63 59 61 58 57 60 65 59 58 50 41 40 38 36 35 35 34 34 33 31 31 30 31 31 33 35 35 34 34 35 37 39 41 43 45 46 49 50 50 51 50 50 50 50 50 48 49 50

GFSSGP_500_spd_135.txt.gz
Wind_Speed
32 32 31 29 23 20 17 14 9 8 8 11 14 14 14 17 12 10 11 8 11 11 11 8 10 14 15 17 15 16 17 14 12 12 11 10 8 7 6 6 6 8 11 11 9 8 7 7 8
34 34 34 31 27 22 20 17 12 9 9 9 12 13 13 14 12 8 10 7 7 9 12 8 10 11 14 17 16 16 14 12 11 11 10 9 8 6 6 6 6 8 9 9 7 5 6 7 7
40 38 36 33 29 25 22 18 14 11 11 9 10 12 11 13 12 7 8 7 4 8 10 8 10 10 13 16 17 14 13 11 11 10 8 7 7 7 6 6 7 7 6 7 6 5 5 5 4
37 42 41 35 31 28 24 20 15 14 14 11 9 11 10 10 9 6 5 6 5 5 12 11 11 10 13 16 14 13 14 12 12 10 8 6 6 6 7 6 7 5 6 5 4 3 3 2 2
41 41 44 41 33 32 26 22 17 15 15 13 10 10 9 10 8 5 3 4 6 4 13 16 12 15 15 14 14 12 13 14 11 10 7 6 6 6 6 6 4 4 4 3 2 2 2 1 2
36 41 35 42 41 37 31 24 19 16 15 14 12 10 9 9 8 5 2 2 7 7 13 17 17 14 16 16 14 12 13 13 10 9 6 5 6 6 5 4 3 3 3 2 1 1 2 4 5
34 37 38 36 44 45 41 34 25 20 17 15 12 12 11 9 8 6 3 3 8 8 14 18 17 13 11 12 13 11 11 11 8 6 4 4 4 6 6 4 3 2 2 1 2 4 6 7 9
33 35 36 35 33 46 42 34 26 22 17 16 15 14 12 10 9 8 4 5 9 11 16 17 15 13 10 10 11 14 10 9 7 7 5 5 3 5 5 3 2 1 0 1 4 7 9 10 11
40 34 34 32 33 35 38 32 27 22 19 16 18 16 14 12 10 9 6 8 8 14 17 18 15 13 12 12 10 10 10 10 8 4 4 4 6 8 8 6 4 4 5 6 7 9 11 11 12
43 41 34 35 33 34 34 30 28 24 21 19 19 18 16 14 12 10 8 9 10 15 18 18 17 14 14 14 14 13 12 9 7 4 4 5 7 9 9 9 8 8 9 9 9 10 11 12 13
41 42 39 35 36 40 38 34 32 29 24 26 19 19 18 17 13 12 10 10 12 11 18 19 19 17 16 14 13 12 12 11 9 9 10 9 8 10 11 9 8 9 10 11 11 12 13 13 13
45 41 46 34 36 36 36 37 32 29 28 27 23 22 19 18 16 16 13 11 14 16 19 20 18 19 17 15 14 15 15 13 12 10 9 9 9 10 11 12 12 13 13 12 12 13 15 15 15
52 46 45 44 33 38 38 41 38 32 33 29 25 25 23 20 18 18 17 14 15 18 18 24 23 22 20 18 16 15 15 15 16 13 12 11 11 11 12 14 15 16 16 15 15 15 16 16 17
56 51 46 45 39 33 40 40 41 34 35 32 28 27 24 22 22 21 19 17 16 17 20 21 26 25 24 21 18 18 17 17 17 16 15 14 13 13 14 15 17 17 19 19 18 17 18 19 19
58 55 52 45 45 32 35 39 36 33 36 34 30 30 28 26 25 25 22 20 19 18 20 22 24 27 26 26 23 22 21 21 20 19 19 17 17 18 18 18 17 19 20 21 20 19 20 21 22
52 56 55 46 46 41 37 32 28 32 36 36 33 31 29 29 29 25 24 23 22 20 20 22 24 25 27 28 27 25 23 22 21 21 20 20 19 21 22 20 19 20 21 22 22 21 22 23 24
53 52 56 48 43 42 41 36 26 29 37 33 33 32 32 32 30 28 29 27 25 22 20 21 24 27 28 27 27 25 24 24 23 22 23 23 22 23 23 20 20 21 22 22 23 25 26 26 28
46 48 48 47 45 41 45 36 27 34 36 35 35 36 35 32 28 32 31 28 26 25 23 21 22 25 27 28 27 26 25 26 26 27 26 23 23 22 22 22 21 22 22 23 24 26 28 29 30
53 45 46 44 44 44 45 43 32 35 39 34 33 36 31 29 32 36 32 29 28 27 25 26 25 27 27 26 29 29 29 30 28 28 24 22 22 23 24 22 20 21 23 23 24 26 28 30 31
55 55 52 48 44 46 46 46 39 37 37 32 32 33 34 31 34 36 32 32 30 30 30 28 28 28 27 27 29 28 29 26 24 23 21 22 25 25 23 20 20 22 23 25 26 27 29 32 34
37 54 55 51 46 48 49 51 41 40 38 34 31 32 32 31 33 34 33 34 34 32 31 32 33 31 29 29 29 27 26 25 24 24 26 25 24 23 21 23 23 22 24 28 29 31 33 36 38
39 40 50 51 49 51 53 59 50 46 40 37 29 28 28 30 32 35 35 34 33 32 34 33 33 32 30 29 29 27 26 25 25 26 26 25 25 24 24 24 25 27 29 31 33 35 36 39 40
47 39 43 48 49 52 57 61 53 47 43 34 28 25 29 32 37 36 35 33 34 37 37 37 35 33 31 31 31 30 27 27 28 26 26 26 26 25 26 27 29 31 33 34 36 37 39 40 41
54 53 46 52 53 57 54 58 64 47 43 36 33 28 29 32 34 35 35 36 33 35 38 40 39 37 37 38 34 29 28 29 30 28 28 30 32 31 28 29 31 32 34 36 37 38 40 42 44
59 53 52 52 57 57 53 58 66 48 44 37 35 34 31 30 31 32 32 33 32 32 35 38 40 39 40 42 37 33 32 32 31 33 35 36 29 29 34 32 33 33 36 37 39 41 42 45 46
59 59 66 63 59 53 61 58 66 57 46 36 37 35 35 27 26 24 25 26 26 27 30 34 36 41 42 44 38 35 33 34 37 37 32 29 30 34 33 32 34 36 38 41 42 43 45 48 48
61 59 58 68 67 61 63 55 62 61 52 43 35 30 33 29 27 25 25 26 28 29 29 30 30 33 36 39 37 34 35 32 31 29 23 25 27 31 33 34 37 40 43 43 45 48 47 49 47
58 57 50 58 62 62 58 57 62 59 56 45 42 38 33 29 32 31 30 30 29 28 30 29 25 24 26 31 35 32 28 25 23 23 25 28 32 34 35 38 41 44 45 48 50 49 48 47 48
59 61 58 53 52 50 49 56 51 54 55 45 43 40 38 38 35 36 38 36 33 32 31 30 28 25 25 27 29 29 29 28 27 26 29 33 35 37 39 42 44 47 50 52 50 48 48 49 47
61 53 57 62 58 52 53 56 48 49 53 45 40 44 42 40 39 38 38 37 36 33 32 32 32 30 29 30 32 33 34 34 32 32 35 38 41 43 43 45 47 49 49 49 48 49 49 44 42

GFSSGP_500_spd_138.txt.gz
Wind_Speed
28 27 28 27 23 22 20 17 13 11 9 11 14 15 15 15 14 10 5 9 8 11 11 11 10 18 16 15 15 16 13 12 11 11 9 8 8 8 9 9 11 11 10 10 9 8 6 5 5
31 32 31 30 26 24 23 20 16 13 10 10 12 14 15 14 12 8 3 6 8 9 9 9 11 12 16 16 16 16 12 11 11 9 7 6 6 8 9 9 10 10 8 9 7 6 5 4 4
32 34 34 33 32 26 25 22 18 15 11 9 11 11 13 13 11 7 4 4 6 7 9 8 10 11 16 15 16 14 12 12 12 9 6 5 5 6 9 10 10 9 8 7 5 4 3 3 3
36 31 37 37 33 30 28 25 21 18 14 11 10 10 11 12 11 7 5 2 5 7 10 9 11 11 14 17 14 12 12 13 11 9 6 4 5 5 7 9 9 7 6 4 2 2 2 2 2
37 38 37 28 39 41 33 27 24 20 16 13 11 10 10 11 12 7 4 1 4 8 10 11 9 11 16 17 15 15 12 13 11 9 5 4 4 6 7 8 6 6 5 4 4 3 3 4 5
34 34 38 39 31 41 39 32 27 23 19 13 11 10 9 10 11 8 4 3 5 10 12 12 11 12 15 15 15 14 12 11 9 9 7 6 6 8 8 8 7 7 5 5 3 3 5 6 6
38 33 34 35 36 36 41 38 30 27 21 16 12 12 10 10 10 9 5 4 6 11 14 14 15 14 14 14 13 13 14 12 10 9 6 5 6 9 9 6 5 5 4 4 5 5 7 8 10
44 40 34 32 33 34 33 46 42 34 28 21 16 14 12 12 10 11 6 6 9 11 15 17 15 14 12 14 13 13 14 13 12 9 6 6 6 8 8 6 4 4 6 8 8 8 8 9 11
43 45 37 29 31 29 30 30 41 40 38 31 19 17 15 13 13 12 8 8 9 13 18 19 17 13 13 13 12 13 11 10 8 6 5 6 6 9 9 9 8 9 9 9 9 8 9 10 11
50 45 39 39 29 31 30 30 33 37 33 26 22 17 16 16 15 15 11 9 11 15 18 22 20 17 14 14 15 16 16 14 11 9 7 7 9 11 12 12 12 11 11 11 11 10 11 11 13
52 47 40 42 36 32 32 31 30 33 33 29 24 18 18 19 17 17 14 11 12 13 19 22 23 20 17 16 16 16 15 14 13 12 11 10 10 12 13 13 13 14 14 14 14 15 14 14 14
54 49 46 43 43 37 35 34 33 33 32 33 27 23 21 21 21 20 17 14 14 17 18 22 23 22 19 19 18 17 17 17 16 14 13 10 9 10 12 14 15 16 17 18 18 17 17 16 16
56 50 49 49 45 43 35 34 34 35 37 34 29 26 26 24 23 21 21 18 17 18 20 22 24 23 23 22 20 19 19 19 18 18 16 14 13 13 13 15 16 17 18 18 18 19 19 18 17
57 55 53 55 51 45 42 33 36 34 40 35 31 29 30 29 27 25 24 21 21 19 21 21 25 26 25 24 22 20 19 21 21 21 19 18 17 17 17 17 18 18 19 19 19 20 20 21 20
52 51 53 55 54 50 46 39 34 34 39 41 35 34 32 33 29 31 26 25 24 22 20 22 23 28 29 28 26 24 22 22 22 22 22 21 21 21 21 19 19 20 20 20 19 20 21 22 23
47 46 49 50 51 55 51 40 33 35 37 36 37 37 35 35 34 32 29 29 27 25 24 24 25 25 30 31 31 30 27 26 26 27 26 26 23 24 23 22 22 21 21 20 19 20 22 23 23
42 49 46 48 48 51 53 48 35 36 36 34 40 39 38 38 37 33 33 32 30 28 26 25 25 27 29 30 30 32 31 30 29 28 27 27 25 26 25 24 22 22 22 20 19 21 23 23 24
34 42 44 39 44 50 53 53 36 40 36 33 40 42 43 41 35 35 36 35 33 30 28 26 26 27 29 30 30 29 29 30 30 31 31 29 27 27 27 25 22 24 22 20 21 22 23 23 23
46 42 33 35 44 46 48 51 37 42 37 36 34 36 36 37 34 40 38 35 34 30 29 30 29 29 29 30 31 31 32 34 33 33 32 28 27 27 28 26 24 23 21 22 23 23 23 23 24
46 44 42 45 38 49 52 52 42 41 44 36 36 33 33 35 36 39 39 37 33 32 33 32 31 32 30 30 31 31 32 32 32 29 28 26 28 30 29 27 23 21 23 22 23 24 24 25 28
58 56 47 49 47 47 48 51 41 40 44 43 38 32 33 31 36 38 39 36 36 35 33 32 35 36 32 31 32 28 29 27 28 29 29 30 31 28 27 24 24 23 23 24 25 27 29 30 31
46 63 63 54 49 50 53 55 45 44 45 41 36 31 30 31 31 40 42 40 39 35 37 37 35 35 35 33 29 28 29 28 29 30 30 28 26 26 26 26 26 24 23 25 28 31 31 32 34
47 45 52 49 47 51 57 59 47 46 48 38 34 32 30 30 32 35 41 41 39 39 39 38 37 36 34 31 30 29 30 30 30 30 30 28 28 27 26 26 27 27 29 28 31 33 33 35 36
45 46 35 44 42 48 48 55 60 45 48 36 36 38 33 32 32 35 39 40 40 39 38 38 39 38 37 36 34 32 32 33 32 33 32 32 31 29 28 30 33 31 28 31 34 34 37 39 38
41 61 54 38 54 48 43 53 62 46 46 39 37 37 39 35 31 34 35 34 38 39 39 38 38 36 38 40 41 40 38 37 36 35 36 35 34 32 33 35 31 30 33 34 36 38 39 39 39
66 64 65 61 53 62 61 51 52 42 42 41 42 37 41 39 38 34 32 36 37 38 40 38 37 38 40 41 41 44 45 44 39 40 39 40 44 40 38 34 30 30 33 36 38 39 39 41 42
78 74 64 63 69 71 69 66 60 49 38 41 38 38 41 41 39 37 32 35 35 36 37 37 36 36 36 36 41 42 46 45 42 38 38 38 33 34 35 29 28 31 34 37 38 39 41 44 46
73 72 71 64 65 70 72 65 67 50 44 39 38 43 39 39 38 40 38 38 34 34 36 35 35 34 34 34 34 37 44 44 43 43 37 34 32 30 30 30 32 34 35 38 40 42 44 46 45
67 72 78 78 68 65 70 75 62 62 53 46 46 45 46 46 43 38 37 40 40 38 38 37 36 35 33 31 31 31 31 38 40 38 34 33 34 32 33 34 35 36 38 41 43 44 47 48 49
61 60 63 70 61 64 55 58 63 65 61 51 47 45 47 47 45 46 45 41 42 41 40 39 38 38 35 33 32 30 32 36 37 36 35 35 35 36 36 37 37 39 42 45 46 48 48 48 49